GFSFLT1_sfc_wetblb_000.txt.gz
Wetbulb
69.56 68.54 68.96 68.08 66.81 65.74 64.77 64.78 65.34 66.00 66.48 66.65 66.49 65.93 65.39 67.11 62.45 61.10 60.16 61.48 63.94 65.65 67.00 66.82 66.55 66.27 67.11 67.08 67.01 67.82 68.09 67.64 67.12
70.10 69.38 68.85 67.65 66.74 65.80 65.44 65.73 65.71 65.81 66.47 67.15 67.96 67.29 67.38 63.24 60.50 59.56 58.41 58.23 65.02 66.45 66.68 66.56 66.93 67.02 67.25 67.25 67.37 67.36 67.75 68.19 67.99
69.37 68.88 68.26 67.29 66.73 66.02 66.56 66.58 66.80 66.46 66.12 66.48 67.10 67.97 67.47 64.28 61.14 59.90 58.88 61.62 65.64 66.32 66.53 67.41 66.71 66.47 66.80 67.00 67.38 67.34 67.23 67.01 67.21
67.69 69.51 68.35 67.54 66.78 66.76 66.93 66.96 66.38 66.51 66.83 66.82 66.89 67.60 67.20 64.12 62.09 61.95 60.52 63.37 66.40 66.87 66.96 67.25 67.54 67.47 67.05 66.42 66.28 66.68 67.11 67.44 67.24
67.83 69.12 68.30 67.59 67.59 67.51 66.92 66.47 66.84 67.01 67.09 67.01 67.59 67.07 66.38 63.47 62.68 62.57 62.05 65.68 67.65 68.07 67.89 67.61 67.59 67.59 67.46 67.19 66.86 66.30 66.41 67.28 66.73
64.04 65.92 66.82 68.20 67.50 67.18 67.47 67.53 67.83 68.27 67.49 67.41 67.24 66.26 62.92 61.37 61.73 61.91 64.06 66.36 68.02 68.07 68.11 68.31 68.03 67.64 67.74 68.17 67.31 67.33 67.00 66.63 66.64
62.78 63.93 66.16 67.36 67.83 68.10 68.07 68.19 68.77 67.66 64.26 63.17 64.30 62.39 61.39 60.76 61.54 61.20 64.72 66.86 68.38 68.63 69.05 69.64 69.49 69.16 69.17 68.76 67.68 67.67 67.57 67.53 67.33
60.85 60.84 61.63 61.53 62.72 62.78 63.67 62.71 62.04 62.08 62.51 61.86 61.13 60.93 59.97 60.13 61.17 62.09 65.01 66.86 68.15 68.84 68.99 69.36 69.31 69.06 69.18 68.92 68.49 69.00 69.26 68.42 68.39
60.65 60.78 61.24 61.48 62.10 62.32 63.60 62.66 61.34 58.92 57.73 57.88 57.49 56.70 57.82 59.37 60.00 60.60 63.98 65.62 65.76 67.29 66.98 68.54 69.08 69.43 69.01 68.22 69.02 68.63 68.37 68.19 68.17
61.67 61.58 61.70 61.59 62.40 60.32 55.81 52.80 52.58 51.87 52.47 52.20 52.17 52.79 54.30 54.56 56.76 57.52 60.70 62.91 63.99 65.38 65.63 66.57 67.29 68.23 68.51 68.04 68.05 67.82 67.49 67.39 68.16
60.49 54.78 54.54 55.24 52.20 51.18 49.90 49.07 48.62 47.84 48.48 48.81 49.47 49.49 50.06 50.21 50.85 52.32 54.18 60.89 62.10 61.54 61.89 62.61 64.61 66.51 66.52 66.57 67.64 67.41 67.29 67.19 66.78
53.33 51.84 49.53 49.82 49.63 48.43 47.34 46.43 45.82 45.82 46.84 45.10 46.72 46.45 45.99 47.43 47.69 50.15 50.51 51.83 56.86 59.00 59.40 61.68 59.26 60.21 60.72 61.57 62.62 64.80 64.67 64.39 64.46
49.63 47.69 46.69 47.56 46.69 45.51 44.84 44.07 43.04 43.29 42.58 42.03 43.04 43.87 44.20 45.30 47.19 47.71 46.45 48.00 49.80 52.53 56.90 55.37 55.65 56.12 57.76 59.53 59.29 59.65 59.88 62.01 62.63
46.65 45.44 45.08 45.52 44.12 42.87 43.03 41.43 40.89 40.91 40.73 42.38 43.06 41.74 42.02 44.37 44.85 42.36 44.31 46.89 46.50 46.76 52.50 53.39 53.24 53.86 55.19 55.81 57.04 57.32 57.25 57.88 58.48
44.47 43.20 43.31 43.75 42.08 40.99 40.53 39.38 40.14 40.26 39.66 43.32 42.25 39.94 42.30 41.39 40.17 41.09 44.13 43.00 42.35 43.95 43.21 42.49 44.60 51.67 52.08 53.78 54.35 55.18 56.52 57.38 57.17
42.43 41.80 41.50 41.87 40.16 38.79 39.61 39.08 38.87 38.99 39.51 37.96 38.00 39.71 40.37 38.82 40.42 40.65 39.87 41.18 40.94 41.94 42.11 43.40 42.97 42.95 49.32 49.25 51.34 52.73 53.71 54.51 55.06
42.17 40.42 39.93 39.62 39.12 37.83 37.76 37.54 37.19 38.14 38.34 35.83 35.38 34.02 36.31 38.45 39.87 39.22 40.04 38.72 40.22 41.01 41.87 41.39 41.63 41.12 40.23 42.67 48.16 49.33 52.05 52.90 53.25
40.56 39.57 38.80 38.29 37.61 36.41 36.17 35.81 35.44 34.51 36.40 36.55 35.72 32.12 30.53 34.88 36.45 37.53 37.10 38.76 37.27 39.18 39.34 41.00 40.47 39.25 39.05 40.72 42.36 47.41 48.77 50.46 52.17
39.49 38.89 37.82 36.92 36.64 35.04 35.32 36.82 34.99 34.40 32.94 35.19 38.58 35.56 34.72 30.32 29.67 34.23 36.76 35.31 37.30 36.77 37.36 38.74 38.37 38.44 38.83 41.21 43.69 45.40 46.66 48.84 50.67
38.08 37.47 36.33 35.66 35.48 34.41 34.00 33.66 32.95 33.83 33.05 33.21 33.53 32.77 33.07 32.74 30.41 28.37 30.88 35.00 36.35 37.76 37.10 35.87 37.24 37.34 37.61 37.45 40.22 44.64 46.03 48.25 48.84

GFSFLT1_sfc_wetblb_003.txt.gz
Wetbulb
68.90 69.12 69.37 68.40 66.95 65.57 64.75 64.71 65.27 65.69 66.39 66.97 67.38 66.89 66.40 66.72 62.21 61.06 60.81 61.23 64.05 66.28 66.23 66.61 66.75 66.38 66.48 66.92 67.29 67.21 68.14 68.42 67.96
69.83 69.75 68.58 67.67 66.65 65.42 65.25 65.68 66.07 66.19 65.95 66.48 67.13 67.74 67.93 63.85 60.83 59.94 59.39 58.47 64.67 65.66 66.42 66.91 66.72 66.45 66.76 66.46 66.58 66.92 67.17 67.56 67.42
68.98 68.96 68.43 67.60 66.60 66.42 66.35 66.78 67.01 66.94 66.58 66.48 66.43 67.54 67.36 64.74 61.63 60.76 59.88 61.97 65.94 66.53 66.51 66.60 67.01 67.27 66.83 66.40 66.55 66.51 66.89 66.83 66.91
67.58 69.03 68.42 67.76 67.21 66.95 67.24 67.63 66.85 66.55 66.95 67.16 67.24 67.64 67.13 64.05 62.31 62.32 61.31 63.99 66.89 67.78 67.71 67.43 67.37 67.70 67.56 67.53 67.19 66.63 66.28 66.40 66.59
67.00 68.93 68.06 67.75 67.70 67.82 67.65 67.03 67.38 67.71 67.67 67.48 67.95 67.42 66.69 62.98 61.73 61.87 61.96 65.86 67.69 68.53 68.48 68.43 68.28 68.21 67.99 68.09 67.72 67.30 67.22 66.73 66.20
63.38 65.88 66.74 67.58 67.99 67.54 67.73 68.05 68.25 68.46 67.66 67.34 67.09 66.14 62.33 60.77 60.84 61.10 63.92 66.48 67.98 68.57 68.86 68.84 68.82 68.81 69.08 69.37 68.93 67.62 67.76 67.87 67.47
61.87 63.35 65.97 67.41 67.76 67.80 67.62 68.04 67.33 64.62 62.82 62.15 62.87 60.40 59.68 59.16 59.80 60.88 64.65 66.85 67.83 67.49 68.12 68.87 68.67 68.66 68.64 68.28 68.09 68.15 68.46 68.13 68.65
60.57 60.22 60.77 60.66 62.36 62.58 63.03 62.04 60.53 57.57 57.14 56.50 55.50 55.09 55.96 56.67 58.29 60.69 64.27 64.56 64.77 65.10 66.40 67.60 68.48 68.93 69.20 68.40 68.16 68.82 68.29 68.18 68.41
59.77 60.52 61.75 62.21 61.77 61.76 58.35 53.31 51.44 50.36 50.41 49.59 49.52 50.02 51.35 51.86 54.61 56.75 60.40 62.13 63.51 64.45 64.88 65.21 66.16 68.27 68.93 68.01 68.58 68.29 67.81 67.50 67.60
60.69 60.82 58.13 54.86 54.11 51.69 48.92 48.15 46.91 46.34 46.84 46.36 46.74 46.94 47.69 47.71 50.15 51.71 57.47 60.74 60.41 60.90 62.24 63.92 64.30 63.57 64.27 65.15 66.33 66.99 66.41 66.58 66.73
51.15 51.71 53.39 52.02 48.77 47.66 45.77 44.53 43.86 43.68 43.72 43.79 44.01 43.82 43.27 44.69 46.50 49.21 48.59 56.59 56.56 58.74 61.22 59.56 59.51 59.59 61.06 62.57 62.60 62.23 62.02 61.67 61.54
52.09 51.08 49.39 47.09 45.48 44.63 42.92 42.38 42.60 41.93 42.33 40.22 41.94 42.93 41.11 43.79 44.26 44.91 45.21 48.07 52.67 55.63 55.75 56.13 56.59 57.57 59.25 58.91 59.54 59.66 59.55 59.51 59.94
48.25 46.34 45.44 43.89 42.76 42.43 41.32 40.61 40.58 40.14 39.10 38.84 40.65 40.77 40.50 42.84 40.40 41.81 42.88 45.26 44.95 48.60 51.77 53.04 53.27 55.69 55.91 56.88 57.18 57.17 57.05 57.79 58.50
44.63 44.03 43.30 42.15 41.36 40.64 40.24 39.11 38.49 38.43 38.86 40.36 41.35 39.05 39.31 40.81 39.96 39.09 40.80 42.55 40.86 43.03 46.82 49.33 49.65 51.82 52.83 53.74 54.60 55.11 55.82 56.60 57.18
42.38 41.97 41.71 41.01 40.07 39.17 38.25 37.26 37.62 38.21 37.26 40.62 40.80 37.80 40.34 38.43 37.25 38.07 39.67 39.17 38.55 41.20 39.53 40.36 41.73 48.73 49.87 50.45 52.26 52.74 52.79 53.61 54.56
41.03 40.63 40.27 39.67 38.08 36.82 37.14 36.98 36.36 36.54 37.29 35.91 36.47 37.70 38.20 37.28 37.56 37.78 36.99 37.49 38.61 38.96 39.40 40.75 40.42 40.30 45.92 46.67 49.28 49.94 51.18 52.87 52.75
40.86 39.51 38.52 37.64 36.83 35.69 35.15 35.27 34.79 34.94 36.34 34.09 33.83 32.17 34.53 36.58 38.50 36.35 37.72 35.94 37.56 38.08 39.28 39.32 39.13 38.67 36.49 40.41 46.39 47.25 50.36 51.20 51.58
39.23 38.22 37.34 36.31 35.60 34.45 33.89 33.56 32.97 32.15 33.48 34.72 32.82 28.61 28.30 32.18 34.28 35.68 34.77 36.19 34.66 36.36 37.01 38.31 38.44 38.03 35.87 39.24 40.37 45.48 47.04 49.10 50.84
38.31 37.39 36.22 35.25 34.81 33.34 33.29 34.71 32.49 32.30 30.72 32.94 35.87 33.37 32.46 28.83 27.75 32.19 34.37 33.31 35.41 33.39 34.25 37.06 36.74 36.47 36.00 39.46 41.81 44.15 45.82 48.01 49.69
36.80 36.06 34.88 34.20 33.85 32.67 32.15 31.61 30.90 31.73 30.84 30.92 30.95 30.38 30.81 30.67 28.33 26.05 28.72 32.93 33.87 34.12 34.72 34.19 36.10 35.24 35.72 35.06 39.04 43.84 45.07 46.67 47.86

GFSFLT1_sfc_wetblb_006.txt.gz
Wetbulb
68.87 69.45 69.37 68.80 66.81 65.30 64.67 64.76 64.99 65.20 65.81 66.59 67.02 67.75 67.05 67.43 60.68 60.75 60.64 61.04 63.49 65.21 66.18 66.54 66.07 66.78 66.12 66.32 66.77 67.56 67.67 68.47 68.99
69.88 69.38 68.47 67.45 66.57 65.41 65.26 65.65 66.20 66.36 66.51 66.36 66.52 67.26 68.06 63.53 60.86 60.29 59.95 59.63 65.27 66.07 65.86 66.30 66.65 66.71 66.63 66.85 66.52 66.66 66.29 67.73 67.88
69.61 69.50 68.54 67.64 66.43 66.60 66.35 67.02 67.27 66.95 66.72 66.92 67.09 67.40 67.35 64.45 61.67 61.11 60.48 62.78 66.72 67.60 67.49 66.99 67.03 67.06 67.85 67.38 66.78 66.48 66.94 67.00 67.02
68.02 69.02 68.48 67.51 67.26 66.94 67.41 67.54 67.12 67.21 67.53 67.55 67.71 68.13 67.45 64.11 62.10 62.04 61.48 64.15 67.17 68.11 68.08 68.32 68.08 67.93 68.02 68.17 68.41 68.15 67.47 67.09 66.58
67.00 68.60 68.07 67.40 67.17 67.53 67.51 67.66 67.96 68.07 68.04 67.93 67.67 67.25 66.18 61.40 60.84 60.87 61.06 65.74 68.08 68.89 68.89 69.10 69.11 69.01 68.82 68.65 68.72 68.40 68.35 68.10 67.70
62.22 65.37 66.65 66.84 67.38 67.42 67.69 68.30 68.14 66.17 64.93 65.23 64.70 62.94 59.78 58.24 59.01 59.72 63.19 66.31 67.77 67.85 67.81 68.27 68.70 68.83 68.77 68.92 68.76 68.58 68.28 68.19 68.40
61.33 62.60 65.12 66.43 66.15 65.68 66.60 66.10 63.31 59.21 57.64 56.30 56.77 54.31 54.45 54.74 55.89 58.77 63.59 64.74 65.16 65.29 65.39 66.67 67.50 67.27 68.05 68.37 68.44 68.54 68.57 68.68 68.83
59.83 59.75 60.15 60.08 62.20 63.19 60.21 53.16 51.48 49.45 49.52 49.25 48.46 49.02 49.90 50.24 51.85 55.14 60.66 62.37 63.52 63.90 64.41 65.15 65.73 67.10 67.89 68.18 68.21 68.41 67.87 68.04 68.09
59.15 60.39 60.94 60.18 60.85 51.12 49.51 47.91 46.76 46.03 45.36 44.61 44.63 45.07 45.16 45.03 47.93 51.35 58.27 60.47 61.14 62.73 63.40 64.39 64.31 63.50 64.31 65.43 66.01 65.22 65.60 65.99 66.84
59.47 57.22 54.34 52.60 49.32 47.22 45.25 43.91 43.71 42.11 42.56 42.13 42.67 42.99 41.14 42.68 45.76 46.89 55.33 56.71 59.01 61.78 60.26 60.70 60.45 60.96 62.49 62.77 62.32 62.45 62.45 62.23 62.07
53.26 52.50 50.50 48.74 46.40 43.96 42.21 41.37 41.39 39.99 39.92 39.91 40.34 41.07 39.86 42.53 41.54 43.82 44.95 52.77 55.48 56.42 57.16 57.39 57.59 59.61 59.63 59.78 59.88 59.67 59.59 59.83 60.24
51.90 49.75 46.74 43.64 42.59 41.45 40.39 39.97 40.34 39.03 39.41 37.28 39.43 40.37 38.71 39.45 39.68 40.60 42.90 44.27 49.33 52.05 53.80 54.36 55.40 56.22 56.91 58.00 57.80 57.73 57.63 58.09 58.79
48.57 45.19 42.58 41.03 40.65 40.07 39.16 38.44 38.51 37.86 36.69 36.06 37.87 38.43 39.02 38.12 37.25 39.12 40.71 40.48 41.09 45.28 50.12 50.79 51.73 52.99 53.93 54.90 55.66 55.69 55.85 56.64 57.63
45.29 42.09 40.49 40.25 39.63 38.54 38.27 37.48 36.58 36.65 36.34 37.95 38.24 37.24 37.28 37.13 38.59 37.35 38.72 37.89 38.69 39.70 44.68 46.79 47.60 49.14 50.98 51.80 52.87 53.76 53.43 53.61 54.16
41.59 40.28 39.37 39.23 38.39 36.98 36.27 35.46 35.47 36.68 35.48 38.18 38.74 36.53 38.74 36.90 35.50 36.83 38.47 36.68 37.80 38.04 37.48 37.79 39.60 46.60 48.30 49.04 50.50 51.30 51.37 52.01 53.18
40.34 39.50 38.47 37.58 36.41 34.61 35.10 34.77 34.21 34.30 35.90 34.00 35.00 36.04 36.77 36.86 36.49 35.40 35.77 35.51 36.44 36.58 36.43 37.82 37.81 38.31 45.48 45.68 47.70 48.87 49.91 51.54 52.44
39.89 38.15 36.88 36.03 35.09 33.93 33.28 33.12 32.77 32.76 33.75 31.42 31.81 29.85 32.41 34.42 36.22 34.31 35.56 33.30 35.46 36.19 37.17 36.79 37.40 36.66 36.60 38.94 45.59 46.28 47.97 50.49 51.15
37.98 36.89 35.89 34.84 34.32 32.95 32.29 31.99 31.52 30.92 31.64 33.05 30.69 26.72 25.71 29.68 32.78 33.50 33.13 33.41 32.57 33.98 34.32 35.43 36.02 36.43 35.72 38.40 39.15 44.03 46.06 48.02 49.92
37.01 36.12 35.05 34.14 33.55 32.07 32.43 32.85 30.88 30.96 29.27 31.11 34.04 31.10 30.50 26.49 25.99 30.34 32.63 31.06 33.15 31.40 31.24 32.89 34.26 35.35 35.11 38.39 41.21 43.58 44.90 46.98 48.73
35.69 34.91 33.89 33.16 32.86 31.46 30.93 30.24 29.56 30.25 29.45 29.20 29.07 28.68 28.88 28.53 26.05 24.10 26.43 30.55 31.47 31.93 30.39 31.34 32.93 33.74 34.59 33.71 37.00 42.94 44.41 46.17 47.19

GFSFLT1_sfc_wetblb_009.txt.gz
Wetbulb
68.70 69.22 69.31 68.51 66.67 65.31 65.13 65.19 65.67 65.93 66.17 66.22 66.75 67.34 67.50 67.36 66.39 66.08 65.64 65.56 64.62 65.73 65.12 66.43 66.85 66.44 66.40 66.45 66.50 67.17 67.80 67.87 68.37
69.63 69.03 68.48 67.65 66.57 65.62 65.83 66.67 67.03 67.11 67.05 66.89 66.82 66.70 67.74 66.65 66.41 66.16 65.98 65.82 66.26 67.41 67.32 66.55 66.84 67.30 67.06 66.98 66.76 66.64 66.59 67.17 67.58
69.86 69.44 68.48 67.86 66.54 67.02 66.65 67.35 67.48 67.06 67.02 67.32 67.53 67.51 67.78 66.24 66.27 66.14 65.95 65.36 66.76 68.07 68.08 67.97 67.73 67.74 67.71 68.20 67.81 67.41 67.07 66.90 67.46
69.32 69.35 68.41 67.72 67.40 67.18 67.49 67.78 67.73 67.93 68.22 68.16 68.04 67.62 67.13 66.81 66.32 65.44 65.86 64.65 67.15 68.34 68.64 68.75 69.13 69.00 68.69 68.38 68.74 69.06 69.00 68.34 67.79
67.40 68.37 68.33 67.52 67.26 67.46 67.64 68.38 68.55 67.78 67.13 66.63 65.45 64.05 63.01 62.62 62.73 63.66 64.46 65.61 67.72 68.37 68.49 68.53 68.97 69.31 69.35 69.43 69.26 69.23 68.83 68.85 68.60
65.14 65.55 66.44 66.87 67.27 67.40 67.74 67.16 64.53 62.49 60.66 59.89 59.35 59.54 59.38 58.62 59.51 61.37 63.26 65.65 67.05 66.99 66.64 66.34 67.44 68.19 68.11 68.55 68.86 69.04 69.06 69.16 69.69
63.94 63.86 65.01 65.55 65.16 65.81 64.12 60.01 57.53 56.79 56.01 55.59 55.57 55.27 55.71 55.76 55.70 57.79 61.27 62.92 64.02 64.80 64.87 65.39 66.03 66.71 67.50 68.35 68.27 68.10 68.54 68.64 68.71
64.89 65.08 65.22 65.44 63.92 58.75 56.69 54.91 53.62 52.71 52.08 51.90 52.04 52.25 51.23 52.17 55.00 56.42 60.50 61.89 62.57 63.14 63.55 64.93 65.40 64.48 65.26 66.47 67.19 67.11 67.01 67.28 67.85
64.61 65.40 63.47 61.12 54.64 54.55 53.07 51.99 50.37 49.31 48.74 48.89 49.69 49.32 50.04 52.50 54.19 54.81 58.09 59.38 61.87 63.48 62.45 62.04 61.72 62.46 64.08 63.57 63.35 63.41 63.17 62.99 63.08
63.02 55.41 53.63 52.99 52.83 51.05 50.08 49.63 48.11 47.20 47.12 46.98 48.28 47.82 49.88 49.35 51.44 52.64 55.56 57.76 58.51 59.14 59.40 59.06 60.01 61.09 60.66 60.83 60.94 60.61 60.88 61.12 61.71
55.13 52.33 51.21 51.43 49.60 48.44 48.08 47.64 46.98 45.60 45.57 45.16 46.83 46.89 47.71 47.80 47.83 50.00 49.94 53.28 54.35 55.67 56.09 56.46 57.64 57.44 58.32 59.15 58.55 58.56 58.68 59.15 59.53
52.36 50.63 48.95 48.16 47.78 46.82 46.50 46.06 46.61 44.79 44.31 44.22 45.53 46.25 46.89 45.96 46.68 47.61 47.46 48.26 49.42 51.85 52.65 52.78 53.49 54.34 55.56 56.13 56.26 56.78 56.51 57.21 58.59
49.53 47.07 46.78 46.61 46.26 45.92 45.21 44.20 44.97 44.14 43.41 43.64 44.57 45.38 47.40 44.86 45.39 46.38 45.72 46.49 46.24 46.49 48.78 48.93 49.71 51.04 52.36 54.03 54.27 54.47 54.67 54.57 55.09
47.53 46.48 45.69 45.47 44.72 44.10 43.93 43.10 43.39 42.61 42.65 43.06 44.23 44.46 46.23 44.15 44.62 44.69 44.84 44.60 44.75 44.56 44.81 45.23 45.44 46.82 49.10 51.32 52.07 52.53 52.73 52.81 53.18
45.97 44.93 44.35 44.39 43.46 42.73 42.68 42.00 41.88 41.65 41.15 41.38 42.11 45.03 46.90 45.18 44.80 43.00 44.34 43.18 43.25 43.40 42.89 42.85 42.58 44.13 46.63 48.54 49.51 50.59 51.05 51.44 51.99
45.15 43.78 43.15 42.92 41.60 40.80 40.81 41.58 40.33 39.80 40.97 40.40 41.58 43.03 43.75 45.13 45.44 42.83 43.82 41.52 41.77 42.05 41.85 41.49 41.27 41.81 44.18 45.82 46.86 48.54 49.47 50.34 51.20
43.92 43.21 41.90 41.57 40.76 40.06 39.71 39.79 39.85 39.03 39.63 37.40 38.41 36.81 40.30 42.08 41.27 41.98 41.59 40.34 41.01 40.54 40.07 40.14 40.01 40.71 41.35 42.25 44.53 45.72 47.26 48.99 50.62
42.59 41.98 41.29 40.49 40.62 39.05 38.65 38.84 38.42 37.23 38.15 38.35 37.37 35.19 34.14 35.08 39.72 40.49 41.04 39.16 38.80 38.92 39.01 38.81 39.15 39.13 40.01 41.07 41.59 43.17 45.06 47.50 49.34
41.28 40.81 40.35 39.74 39.25 38.61 38.20 37.91 37.81 38.14 35.62 38.04 37.09 37.36 36.61 32.86 32.17 37.77 37.97 38.06 36.63 37.17 37.61 37.61 37.95 38.57 39.08 40.02 40.90 42.57 44.34 46.61 48.42
39.98 39.75 39.27 38.69 38.27 37.54 37.52 36.98 36.83 36.85 36.29 35.64 35.60 35.65 35.52 35.83 32.95 29.99 33.43 35.47 36.75 36.81 36.57 36.56 37.26 37.81 38.54 38.91 39.94 41.85 43.36 45.72 47.35

GFSFLT1_sfc_wetblb_015.txt.gz
Wetbulb
68.02 67.49 67.70 67.43 66.38 66.43 66.49 66.92 67.13 67.11 67.06 66.98 66.98 67.27 67.45 66.61 66.97 66.87 67.05 66.87 67.33 67.40 67.45 67.18 66.75 66.55 67.42 67.32 67.03 66.98 66.92 67.40 68.07
69.27 68.36 68.23 67.45 66.79 66.63 66.90 67.44 67.69 67.35 67.06 67.53 67.87 67.61 67.34 67.11 67.54 67.34 67.66 67.71 67.41 67.99 67.92 68.52 68.76 68.09 68.01 68.00 68.22 67.66 67.63 67.43 67.23
69.90 69.01 68.33 67.70 67.68 67.29 67.66 68.03 67.89 68.08 68.70 68.83 68.34 67.66 67.30 66.64 66.88 67.29 67.18 66.86 67.22 68.17 68.48 69.07 69.52 69.52 69.64 69.45 69.04 68.71 68.95 68.35 68.06
69.99 69.23 68.63 68.10 67.63 67.63 68.07 68.89 68.99 68.36 67.74 66.41 64.88 64.28 64.82 64.28 64.76 64.49 65.14 66.10 67.60 68.13 67.86 68.72 68.43 68.37 69.00 69.07 69.22 69.60 69.42 69.27 69.46
69.54 69.72 68.65 67.86 67.68 67.96 68.33 66.92 66.46 64.84 62.71 61.13 60.31 61.43 63.13 62.88 62.49 62.31 61.88 63.74 65.92 67.24 66.88 66.41 66.25 66.67 67.64 68.12 68.20 68.42 68.77 69.25 69.52
65.96 66.01 67.21 67.56 67.33 67.57 64.53 62.17 60.11 60.14 60.48 58.43 58.16 59.48 60.46 59.42 59.15 59.50 61.73 62.57 64.05 64.90 65.01 65.03 65.62 66.73 66.63 66.96 67.92 68.41 68.48 68.52 68.66
65.98 65.31 66.58 66.30 66.35 63.54 61.25 58.61 58.39 61.10 60.57 59.37 59.57 56.71 55.70 55.81 56.85 59.06 60.94 62.41 63.06 63.32 65.41 64.84 64.43 65.59 65.19 65.01 65.23 65.27 65.20 65.21 65.41
65.35 65.81 65.16 65.96 64.61 64.06 61.30 60.82 59.26 57.42 55.68 55.28 54.27 54.65 54.02 54.56 56.09 57.85 60.73 62.31 63.24 64.28 63.00 63.01 63.50 63.10 63.12 63.26 62.85 62.61 62.81 62.85 63.13
65.07 65.31 66.64 65.54 63.76 62.10 60.73 59.50 57.06 54.63 53.12 52.33 51.89 52.47 52.29 53.42 54.64 56.36 58.70 61.01 61.84 61.66 61.89 61.19 60.76 60.95 61.65 61.19 61.05 60.83 60.81 61.56 61.97
65.70 65.25 63.48 62.22 60.75 59.13 57.86 55.82 53.41 52.32 51.57 51.18 50.47 50.89 50.99 51.85 53.54 54.98 56.80 57.49 57.76 58.06 58.26 58.10 58.05 57.96 58.30 58.57 58.42 58.62 59.13 59.11 58.95
63.90 61.59 60.18 59.37 57.61 55.27 53.36 52.05 51.90 51.32 50.62 49.81 49.65 49.91 50.66 50.93 52.22 53.73 52.10 53.73 53.84 54.28 54.37 54.14 54.30 54.55 55.12 55.83 56.15 56.21 56.47 56.67 57.03
61.60 57.86 56.77 56.38 54.10 52.60 52.30 51.35 51.15 50.39 49.67 49.37 49.41 49.34 49.69 50.22 51.16 51.71 52.51 50.77 50.71 50.66 51.22 51.40 51.69 52.22 53.08 53.69 54.42 54.64 54.50 54.52 54.95
59.20 56.65 55.61 53.95 52.80 52.21 50.59 49.10 49.43 49.11 48.58 48.21 48.56 49.19 49.40 49.01 49.55 50.06 49.64 50.08 49.14 49.40 47.95 48.10 48.53 49.27 51.01 52.58 53.34 53.82 53.25 53.09 53.79
53.72 53.94 53.55 52.52 51.43 50.24 48.92 48.19 47.64 47.02 47.29 47.01 47.79 49.42 49.32 49.11 48.16 48.38 48.54 48.39 48.55 48.12 48.84 47.74 47.39 46.84 47.81 49.87 51.35 52.05 51.85 52.07 52.52
54.18 53.77 52.16 51.48 50.01 48.95 48.46 47.56 47.50 46.10 45.65 45.26 46.89 49.47 50.08 49.68 48.84 48.53 48.07 47.28 46.81 47.09 46.87 45.96 46.22 47.23 46.46 48.00 48.41 49.76 50.84 50.75 51.32
53.83 52.59 51.08 50.73 49.12 47.76 47.51 47.14 46.05 45.22 45.28 46.61 46.98 48.36 47.41 48.98 49.37 49.13 46.61 46.67 45.81 45.58 45.43 44.69 44.52 44.23 46.28 46.09 46.56 48.08 48.95 50.08 50.37
51.73 51.89 50.42 49.29 48.16 47.19 46.81 46.74 45.83 44.99 44.35 41.79 44.73 43.45 45.06 46.24 46.46 47.02 45.92 44.83 45.54 44.66 44.06 43.65 43.31 43.44 43.15 44.19 45.25 45.89 46.92 48.64 49.61
50.27 50.79 49.26 48.78 48.58 46.60 46.07 45.64 44.43 43.56 43.99 42.91 41.33 40.17 40.34 40.05 45.65 45.41 44.78 44.52 43.96 43.51 43.77 43.14 42.82 42.48 42.32 42.94 42.95 43.75 44.32 46.62 48.68
48.88 49.07 48.42 47.66 46.81 45.81 44.61 44.30 43.91 44.37 41.69 43.39 41.57 41.31 40.24 36.78 36.54 43.78 43.77 43.93 41.55 42.82 42.78 42.10 41.70 41.66 41.80 42.39 42.86 43.07 42.98 45.64 47.47
47.29 47.73 47.32 46.36 46.01 45.01 44.20 43.72 42.86 42.56 41.72 40.86 40.28 40.30 40.63 40.19 37.06 35.06 38.87 41.25 42.36 42.41 41.97 41.47 41.05 41.28 40.97 40.72 41.23 42.32 43.08 44.85 46.25

GFSFLT1_sfc_wetblb_018.txt.gz
Wetbulb
68.31 68.06 68.19 67.14 66.86 67.06 67.72 67.79 67.70 67.45 67.33 67.33 67.50 67.52 67.32 67.72 62.96 63.52 65.51 64.84 68.21 68.05 67.38 67.22 67.69 66.87 66.83 67.44 67.62 67.05 66.94 66.94 67.37
68.25 68.81 68.25 67.53 67.38 67.55 67.80 68.37 68.25 67.85 67.94 68.43 68.18 67.72 67.67 65.46 65.24 64.80 65.30 66.69 68.26 68.14 67.77 68.93 69.38 69.46 68.95 68.79 68.44 68.40 68.15 67.80 67.66
69.89 68.95 68.35 68.03 67.87 67.71 68.32 68.33 68.44 69.08 68.93 68.35 67.56 66.94 66.82 64.33 63.17 62.81 63.37 66.87 67.77 67.97 67.46 68.89 68.91 68.90 69.18 69.51 69.47 69.56 69.15 68.98 69.05
70.02 69.14 68.70 68.60 67.78 68.22 69.22 68.81 68.24 67.73 66.60 64.59 62.78 63.29 63.87 60.29 59.43 61.30 60.15 65.55 66.25 67.48 67.31 67.14 66.88 66.86 67.92 68.53 68.53 68.60 68.97 69.27 69.44
70.09 69.55 69.24 67.99 68.04 68.51 67.40 66.90 65.85 64.27 62.33 60.42 60.20 61.41 61.89 57.40 56.32 57.85 59.20 62.97 64.17 64.98 65.73 65.77 65.82 67.25 67.54 67.58 68.40 68.85 68.96 68.97 68.91
67.56 67.09 67.53 68.23 67.93 66.80 64.57 62.44 61.08 61.80 62.30 61.60 60.37 60.44 52.48 50.86 52.82 56.61 62.04 62.38 63.42 63.90 65.18 66.07 66.07 66.51 65.83 65.86 65.80 65.90 65.92 65.77 65.98
64.96 64.81 66.96 67.45 66.79 64.94 62.59 60.35 61.85 61.03 54.72 54.15 56.62 50.51 49.31 49.50 52.05 56.78 62.04 61.60 61.56 65.59 64.43 65.32 64.63 64.32 64.24 63.90 63.53 63.72 63.67 63.66 63.85
62.85 62.57 63.60 63.54 63.02 59.88 59.39 57.08 54.24 51.65 50.19 49.28 48.03 48.62 47.93 47.54 53.57 58.75 62.87 64.44 64.75 63.04 63.87 62.80 62.41 62.86 62.64 62.21 61.93 61.76 62.07 62.59 62.89
60.57 62.40 63.23 63.57 61.75 57.46 55.32 53.86 51.14 48.85 47.55 46.45 45.85 46.29 45.99 46.64 52.11 56.22 60.63 61.08 61.54 62.34 61.32 60.23 59.98 59.81 60.04 59.84 59.65 59.69 59.96 59.95 59.80
60.96 61.24 59.53 57.55 55.11 53.50 51.56 48.69 47.70 46.70 46.50 45.58 44.89 44.95 44.84 45.08 50.54 50.96 57.83 57.68 57.75 58.09 57.75 57.20 56.79 56.59 56.81 57.07 57.11 57.15 57.49 57.57 57.67
59.62 57.32 56.50 53.65 51.51 49.07 47.41 45.96 45.76 45.05 44.45 44.59 44.01 43.76 44.61 45.14 47.14 48.63 51.17 54.61 53.91 54.06 54.21 54.13 54.24 54.53 54.95 55.17 55.39 55.50 55.70 55.78 55.84
57.41 54.49 53.36 50.44 48.49 47.93 46.57 45.30 45.25 44.28 44.91 43.12 44.03 43.83 43.61 43.99 46.00 46.93 46.83 48.66 52.29 51.41 51.06 51.36 51.62 52.08 53.28 54.40 54.65 54.75 54.78 54.32 54.43
54.00 52.31 50.68 48.74 48.01 46.54 44.45 43.22 43.36 42.58 42.05 41.19 41.33 42.29 43.64 43.73 44.09 44.48 44.06 43.93 45.79 48.38 48.91 49.07 49.67 49.56 50.94 52.42 53.28 53.49 53.43 53.25 53.44
53.36 51.29 48.65 47.81 46.18 44.42 43.93 42.41 41.69 40.17 40.61 41.44 40.62 43.43 42.76 42.99 45.01 42.87 43.69 43.25 42.87 42.39 47.53 48.41 48.55 48.40 48.97 50.76 51.66 51.92 52.29 52.15 52.25
49.98 51.13 47.57 46.84 44.68 43.15 42.76 41.67 41.56 40.13 39.88 42.95 43.11 42.82 43.47 42.75 42.22 42.50 44.46 41.60 41.67 40.89 40.74 39.69 41.06 47.18 48.00 49.11 48.98 50.11 50.56 51.09 51.64
49.98 49.56 46.72 45.73 43.44 41.96 42.31 41.44 40.61 39.27 39.13 39.32 40.00 40.87 41.99 43.07 42.84 42.92 40.62 40.90 40.38 39.81 39.19 39.05 38.72 39.16 45.74 46.08 47.27 48.63 49.29 49.84 50.62
50.57 48.82 45.29 43.73 42.58 41.99 41.30 40.81 40.29 39.21 38.50 36.03 37.14 35.61 38.49 40.15 40.81 40.00 40.59 38.45 39.21 39.59 39.63 38.55 38.23 37.22 37.24 40.37 45.64 46.29 47.36 48.36 49.64
49.66 48.12 45.14 43.46 42.86 41.04 40.25 39.59 39.05 37.98 37.81 37.46 35.66 33.04 32.46 33.31 37.57 38.50 38.13 38.33 36.85 37.08 38.36 38.77 38.32 37.37 36.63 39.63 40.05 43.83 45.29 46.11 48.60
48.27 47.41 45.63 42.72 42.06 40.14 39.30 40.39 38.30 38.29 36.06 37.40 39.01 35.55 34.40 30.88 30.15 35.57 36.45 37.00 37.58 36.30 36.45 36.87 37.02 37.01 36.46 40.00 41.96 43.16 44.21 45.95 47.95
46.98 46.52 44.72 41.64 40.97 38.93 38.92 38.32 37.40 37.18 36.32 35.53 34.93 34.47 34.32 33.67 31.06 28.83 31.73 34.79 36.14 36.35 36.36 35.53 35.79 36.66 36.36 35.68 38.38 42.60 43.91 45.54 46.78

GFSFLT1_sfc_wetblb_021.txt.gz
Wetbulb
68.70 68.54 67.52 67.27 67.51 67.86 68.01 67.98 67.65 67.41 67.64 67.86 67.76 67.35 67.28 67.92 63.98 63.12 66.71 64.66 68.47 68.07 67.19 67.66 68.01 67.97 66.90 66.82 67.23 67.65 66.99 66.81 66.72
68.80 68.67 67.92 67.63 67.74 67.85 68.50 68.54 68.31 68.32 68.65 68.50 68.13 67.75 67.68 64.36 62.14 65.37 65.14 65.72 68.50 67.84 66.71 68.38 69.48 69.24 69.04 69.28 69.26 68.72 68.39 68.11 67.73
69.48 68.80 68.33 68.39 67.71 68.57 68.69 68.72 69.17 69.21 68.58 67.63 66.41 65.86 65.62 62.04 59.57 61.77 62.05 67.10 67.12 67.14 65.84 68.02 67.74 67.42 68.16 68.58 68.68 68.89 69.17 69.23 69.08
69.91 69.05 68.87 68.28 68.05 69.00 69.38 69.01 68.40 67.64 66.06 63.44 61.67 63.07 63.05 57.91 58.12 59.55 59.03 65.50 64.62 65.64 66.07 66.01 65.93 67.82 68.28 68.75 69.07 69.16 69.16 69.17 69.17
70.24 69.49 69.45 68.12 68.51 68.54 67.92 67.55 66.53 64.80 62.41 60.62 61.28 61.58 58.98 52.36 56.40 57.38 59.51 63.76 63.28 63.80 64.28 65.18 67.07 67.01 66.66 66.52 66.51 66.55 66.51 66.47 67.16
67.68 67.29 67.96 68.57 68.46 67.24 65.89 64.58 63.17 62.63 62.54 61.62 61.47 57.22 48.22 49.70 54.86 56.43 63.00 61.36 62.57 66.44 66.13 66.54 66.04 65.53 65.11 64.52 64.55 64.50 64.59 64.76 64.93
66.13 65.27 67.04 68.17 67.91 66.22 64.41 62.34 61.83 58.90 53.18 50.75 52.91 47.90 46.94 50.02 54.92 58.62 64.53 62.79 65.84 65.41 64.85 64.39 64.12 64.17 63.52 63.04 62.79 63.05 63.63 63.92 64.02
62.56 63.27 64.03 63.71 63.59 61.01 59.53 56.26 52.24 49.23 47.29 46.21 45.18 46.09 45.65 51.69 54.95 60.87 64.61 64.16 63.40 63.94 62.59 62.32 61.98 61.70 61.46 61.12 61.02 61.20 61.09 60.97 60.85
60.58 60.94 61.63 61.61 61.09 57.34 54.13 50.58 46.81 45.83 45.09 44.09 43.77 44.16 44.18 49.68 52.47 58.04 61.76 61.60 62.17 61.34 60.60 59.61 58.95 58.61 58.60 58.57 58.37 58.34 58.28 58.30 58.41
59.20 60.40 61.07 58.03 53.68 51.01 46.92 45.82 45.28 44.18 43.94 43.20 43.03 42.98 42.69 48.70 50.62 52.51 58.92 58.70 58.08 57.73 57.06 56.74 56.40 56.30 56.28 56.37 56.50 56.45 56.51 56.63 56.49
58.15 56.51 54.23 51.16 48.46 46.33 45.39 44.34 43.74 42.63 42.29 42.63 41.87 41.60 43.18 45.55 47.76 49.23 52.19 55.54 54.24 54.12 54.00 53.96 53.82 54.32 55.13 55.72 55.71 55.60 55.74 55.62 55.36
55.64 53.43 50.23 47.64 46.16 45.81 44.05 43.34 42.68 42.15 42.69 40.72 41.18 41.68 41.66 42.60 46.45 46.00 46.40 48.23 53.85 52.03 51.67 51.83 51.95 52.29 53.17 54.09 54.34 54.26 54.56 54.42 54.66
53.96 51.71 47.99 46.89 45.96 44.15 42.42 41.77 41.18 40.08 39.56 38.69 39.24 40.84 41.80 41.63 41.90 43.93 44.23 43.81 45.56 48.06 49.10 49.49 50.02 50.63 51.07 52.61 53.17 53.15 53.16 52.99 53.36
53.20 49.94 46.88 45.88 44.15 42.80 42.86 40.63 39.99 38.39 38.51 39.97 39.35 41.79 41.38 41.22 43.28 40.78 41.32 41.89 41.21 40.56 47.94 48.36 47.89 48.41 49.86 51.15 51.56 51.52 52.10 51.88 52.55
51.27 47.38 46.00 44.98 42.94 41.72 41.38 40.08 39.36 38.08 37.42 41.43 41.99 41.16 42.15 41.10 40.25 40.54 42.56 40.46 40.19 39.25 38.98 38.53 39.80 46.37 47.02 48.14 49.19 50.22 50.30 50.56 51.09
49.24 46.59 44.69 43.84 42.35 40.83 40.77 40.01 38.57 37.68 36.97 37.19 38.27 39.78 40.38 41.05 41.43 40.91 38.88 39.50 39.27 38.31 37.62 37.45 37.06 37.89 44.56 45.04 46.59 48.22 49.01 49.34 49.75
48.11 46.68 44.69 42.77 41.23 40.43 39.99 40.19 38.68 37.53 36.49 35.29 35.90 34.41 37.19 37.82 38.69 38.33 39.13 36.77 37.54 38.14 38.42 37.30 36.81 35.81 35.75 38.85 44.80 44.85 46.63 48.43 48.77
46.91 45.57 44.22 43.96 41.33 39.72 38.70 38.45 38.74 36.67 36.45 35.24 35.48 32.68 32.38 31.82 35.83 36.51 36.23 35.96 35.20 35.19 36.49 37.34 37.16 36.22 35.50 38.40 39.28 43.10 44.69 46.91 48.20
46.21 44.97 44.14 44.33 41.25 38.93 38.28 39.13 37.19 37.46 35.20 36.25 37.48 34.21 33.45 30.48 29.93 33.87 34.44 34.89 35.59 34.22 34.56 35.10 35.45 35.76 35.44 38.86 41.65 42.80 43.92 46.19 47.94
45.42 44.67 43.34 43.40 41.97 37.86 37.87 36.80 36.29 36.20 35.31 34.79 34.13 33.51 33.15 31.89 30.16 28.23 30.84 32.89 34.16 34.49 33.86 33.97 33.96 34.85 34.50 34.16 37.03 42.71 43.99 45.79 46.66

GFSFLT1_sfc_wetblb_024.txt.gz
Wetbulb
68.66 67.33 66.95 67.15 67.55 67.76 67.70 67.53 67.44 67.44 67.73 67.79 67.47 67.39 67.72 66.14 62.36 62.34 63.11 64.15 68.33 67.21 66.63 67.76 68.25 68.32 67.40 66.93 67.16 67.41 67.14 66.90 66.51
68.81 67.83 67.36 67.53 67.72 68.02 68.60 68.20 68.22 68.41 68.51 68.20 67.71 67.38 66.27 60.77 63.06 63.66 64.89 65.19 67.84 67.21 66.39 68.89 68.67 68.55 68.68 68.88 68.74 69.13 68.55 68.18 67.57
69.22 68.22 67.88 67.87 67.75 68.70 68.65 68.83 69.15 68.97 68.11 66.83 65.44 63.99 64.05 59.23 60.51 60.13 60.80 66.57 66.45 66.95 66.64 66.99 66.70 68.18 68.76 68.63 68.85 68.43 68.94 69.00 69.15
69.53 68.56 68.64 67.75 68.36 68.85 69.17 69.18 68.52 67.46 65.55 62.95 61.71 62.62 62.30 56.26 58.00 58.65 58.11 65.18 63.75 64.98 65.56 65.46 67.42 67.54 67.31 67.19 67.38 67.34 67.91 68.39 68.76
70.00 69.26 69.31 68.01 68.77 68.54 68.19 67.92 66.71 64.51 62.12 61.07 62.19 58.99 57.89 54.53 55.78 56.89 58.30 63.49 62.95 63.78 64.40 66.91 67.33 66.95 66.10 65.66 65.42 65.45 65.73 65.92 66.37
67.73 67.30 68.22 68.59 68.68 67.73 67.03 65.55 63.28 62.79 61.93 61.01 59.67 53.62 48.19 52.91 54.38 55.74 63.30 61.00 66.45 66.75 66.72 65.97 65.99 65.27 64.31 64.00 63.98 64.46 64.73 64.85 64.80
66.48 65.76 66.98 68.39 68.35 67.03 64.94 62.70 61.97 56.37 50.82 47.47 51.10 45.28 48.89 53.12 56.48 59.00 65.13 65.76 66.14 65.38 64.65 64.51 63.93 63.40 62.58 62.44 62.46 62.37 62.18 62.17 62.15
63.63 63.28 64.34 64.07 64.30 61.31 58.38 54.24 50.20 46.53 45.05 44.02 43.74 44.00 50.31 53.09 56.21 62.30 65.01 64.57 64.90 63.58 62.37 61.79 61.69 60.91 60.69 60.22 60.00 59.81 59.58 59.54 59.46
60.94 61.60 61.43 61.48 60.12 56.76 54.56 48.70 44.85 44.30 43.27 42.35 42.36 42.45 48.66 51.51 53.96 59.14 62.80 62.88 62.10 61.10 59.72 58.69 58.09 57.47 57.36 57.49 57.46 57.19 57.51 57.65 57.47
59.96 60.02 60.38 60.30 59.00 51.30 45.91 44.53 44.11 42.63 42.10 41.85 41.96 41.57 47.36 49.73 51.76 53.81 59.73 59.56 58.59 57.90 57.19 56.38 56.02 55.89 56.18 56.49 56.29 56.07 56.36 56.23 56.08
59.33 59.16 59.53 53.26 49.85 45.59 44.29 43.67 42.63 41.28 41.26 41.15 40.61 40.80 44.85 47.91 49.14 50.23 52.74 56.76 55.27 54.52 54.14 53.84 53.82 54.25 54.95 55.35 55.25 55.28 55.38 55.17 55.38
57.65 55.99 52.17 47.86 45.15 44.23 43.31 42.48 41.45 40.96 41.22 39.31 39.67 40.38 40.46 46.12 46.47 46.56 45.69 49.02 54.66 52.43 52.15 52.00 52.05 52.77 53.35 54.47 54.48 54.35 54.17 54.11 54.33
54.39 51.67 47.78 45.63 44.54 43.16 42.25 41.38 39.80 39.04 38.35 37.62 38.20 39.79 40.38 43.25 43.62 44.21 43.09 43.81 44.61 48.55 49.82 49.90 49.88 50.52 52.11 53.05 53.08 52.59 52.88 52.72 53.39
53.73 50.07 46.41 45.20 43.46 42.37 42.25 39.60 39.06 37.56 37.41 38.97 38.77 40.47 39.60 39.99 42.87 41.71 40.73 41.62 40.44 39.43 48.41 48.02 47.70 48.16 49.10 50.31 51.13 51.45 51.62 51.22 51.78
52.89 47.48 45.57 44.09 42.53 41.27 40.57 39.02 37.85 37.01 36.47 40.97 40.65 39.12 40.15 39.03 38.71 38.92 41.24 39.13 39.01 37.88 37.74 37.19 39.89 46.23 46.54 47.41 48.63 49.46 50.00 50.21 50.11
51.18 46.88 44.77 42.92 42.17 40.83 40.06 39.03 37.69 36.53 35.74 36.91 37.75 38.65 38.72 39.19 39.27 38.75 38.04 38.33 37.60 36.91 36.98 36.41 36.04 37.22 44.24 44.86 46.67 47.36 48.06 48.81 49.44
50.01 47.71 44.24 42.67 41.06 39.96 39.49 39.35 37.67 36.40 35.02 35.19 35.39 34.17 36.57 37.10 36.88 36.77 37.50 35.24 36.31 36.46 37.05 36.12 35.79 34.92 34.87 38.18 44.98 44.62 46.04 47.54 48.93
49.90 47.44 44.40 41.71 41.11 40.08 38.95 38.90 38.55 36.01 35.13 34.43 35.54 32.10 32.72 31.56 34.42 35.04 34.73 34.42 34.05 34.33 35.01 35.52 35.43 35.06 34.31 37.64 39.02 43.81 44.13 46.05 48.28
48.29 46.45 44.45 42.31 41.50 41.35 38.32 39.07 37.72 37.13 34.83 35.09 36.27 33.44 33.09 30.49 30.54 33.09 33.42 33.69 34.29 32.61 33.12 33.60 34.05 33.87 33.66 37.33 40.75 43.88 44.29 46.07 47.96
46.98 45.96 44.49 42.87 41.08 41.05 40.46 36.68 36.88 36.12 35.27 34.65 33.59 32.75 32.27 31.07 29.90 28.78 30.48 32.55 32.77 33.18 32.91 32.68 32.11 32.65 32.54 33.19 37.13 43.31 44.36 46.00 47.00

GFSFLT1_sfc_wetblb_027.txt.gz
Wetbulb
67.11 66.93 66.81 66.97 67.09 67.17 67.00 66.86 66.93 67.16 67.48 67.62 67.73 67.89 66.77 63.73 61.01 60.72 61.79 63.16 67.87 67.16 66.39 68.06 68.67 68.61 67.90 67.04 67.26 67.53 67.31 66.94 66.63
67.66 66.96 67.13 67.43 67.66 67.79 67.81 67.62 67.92 68.23 68.28 67.98 67.36 65.81 63.69 61.82 62.43 63.29 63.51 64.42 67.40 66.96 67.11 68.29 67.92 68.59 68.69 68.60 68.83 69.02 69.01 68.65 67.86
68.26 67.57 67.30 67.45 67.69 68.40 68.36 68.49 68.66 68.50 67.46 65.65 63.69 63.10 62.28 60.74 59.21 59.44 59.49 65.35 66.05 66.94 66.78 66.63 67.92 68.78 68.85 68.72 68.65 68.98 68.81 68.98 68.93
68.96 68.23 67.93 67.55 68.23 68.50 68.54 69.06 68.26 66.97 63.81 61.68 61.71 61.57 61.57 57.00 56.48 57.84 57.27 64.75 63.70 64.80 65.33 65.55 67.64 67.46 67.16 66.70 66.32 66.95 67.09 67.37 67.84
69.66 69.01 69.04 67.67 68.41 69.05 68.73 67.97 66.73 63.96 61.25 61.20 59.34 60.47 59.13 54.06 55.22 55.67 56.64 63.17 62.78 63.99 65.17 67.69 66.96 65.97 65.56 64.39 64.93 65.09 64.98 65.19 64.99
67.36 67.13 68.15 68.45 68.87 68.01 67.72 66.26 63.81 61.95 60.97 59.37 56.34 53.36 51.86 52.34 53.67 54.59 60.80 63.73 66.94 67.25 66.63 66.34 65.29 64.74 63.62 63.10 63.17 63.10 62.76 63.07 63.44
66.53 65.70 67.14 68.47 68.62 67.66 65.89 63.43 60.93 53.57 47.10 45.65 49.39 46.23 51.00 53.96 56.05 58.62 64.10 65.91 66.10 65.46 64.93 64.11 63.47 63.09 61.76 61.92 61.84 61.57 61.11 60.96 60.85
64.16 63.75 64.41 63.83 64.79 61.70 57.20 51.89 48.21 44.64 43.82 43.00 42.55 47.74 51.30 53.42 56.44 61.59 65.42 65.03 64.38 63.09 62.35 61.48 61.02 60.20 59.55 59.33 59.17 59.21 58.97 58.93 58.60
61.78 61.94 61.95 61.63 60.31 56.21 52.90 47.04 43.56 43.02 41.95 41.47 41.41 46.12 50.41 52.56 54.43 58.88 63.32 62.81 62.06 60.92 59.52 58.49 57.96 57.79 57.74 57.75 57.49 57.46 57.45 57.26 57.22
60.64 60.51 60.33 59.93 58.50 53.54 47.96 43.54 42.93 41.48 41.17 40.67 40.86 44.61 48.88 50.52 52.54 53.92 60.00 60.40 59.19 58.52 57.19 56.48 56.35 56.37 56.63 56.66 56.53 56.70 56.55 56.33 56.38
60.35 59.11 59.16 58.96 56.57 47.04 43.95 42.87 41.85 40.65 40.39 39.92 39.72 42.14 47.70 49.07 49.92 50.27 52.44 57.95 56.21 55.14 54.67 54.50 54.53 54.84 55.16 55.44 55.23 55.30 55.18 55.20 55.35
59.84 58.51 57.67 54.03 47.88 43.94 42.39 41.42 40.82 40.26 40.27 38.17 38.88 39.74 44.71 47.01 47.74 46.21 46.03 49.25 55.01 53.66 52.62 53.12 52.77 52.99 54.26 54.42 54.04 53.75 53.82 53.78 54.44
57.52 56.60 54.61 46.50 43.77 42.88 42.09 40.98 39.48 38.33 37.72 37.14 37.44 38.63 41.07 44.27 44.08 43.89 42.79 43.60 43.72 48.91 50.71 50.15 49.91 50.85 51.40 52.41 52.89 52.62 52.49 52.32 52.79
55.45 53.63 48.51 44.63 42.97 42.12 42.09 39.52 38.76 36.99 36.81 38.16 38.37 39.09 38.11 42.34 44.01 41.53 40.99 41.79 39.57 40.53 48.47 48.30 47.81 48.12 48.96 49.97 50.57 50.84 51.11 51.03 51.08
54.01 48.75 45.91 44.28 42.42 41.04 40.35 38.76 36.85 36.42 36.46 40.72 39.90 37.84 38.52 38.01 39.14 39.25 40.15 39.48 38.18 37.24 37.01 36.35 38.19 46.82 46.71 47.77 49.02 49.66 49.68 49.89 50.21
53.74 50.09 47.00 45.81 44.67 41.09 40.02 38.29 36.84 35.63 35.51 37.07 37.52 37.56 37.87 37.48 37.67 37.41 37.28 37.21 36.42 35.84 35.83 35.50 35.20 35.86 44.53 45.44 47.26 48.01 48.17 48.74 49.20
52.99 49.99 47.43 45.53 43.23 40.05 39.44 39.12 36.94 35.51 34.31 35.15 35.21 34.33 36.22 36.06 35.88 35.71 36.65 34.64 35.46 35.83 35.97 34.94 34.68 34.00 34.00 37.48 45.88 46.65 46.52 47.61 48.63
53.98 50.36 48.16 45.56 43.79 41.09 39.69 39.01 38.58 35.60 33.93 34.01 35.82 31.93 32.41 32.04 33.58 33.76 33.87 33.63 33.62 33.67 34.48 34.63 34.28 33.51 33.02 35.68 37.65 43.67 45.48 46.66 48.47
53.24 50.16 47.24 45.20 44.13 41.26 40.33 39.95 38.21 37.12 34.67 34.14 35.26 32.74 33.25 31.18 30.15 32.33 32.76 32.94 33.46 31.89 32.73 32.70 33.16 32.72 32.87 37.72 41.92 43.96 44.62 46.67 48.52
50.84 49.78 46.91 44.63 44.06 42.76 40.36 38.08 37.19 36.76 35.57 34.80 33.15 32.13 31.64 30.64 30.06 29.02 30.07 31.95 32.20 32.27 32.00 31.46 30.93 31.67 31.79 33.02 37.79 42.27 43.88 45.89 47.35

GFSFLT1_sfc_wetblb_030.txt.gz
Wetbulb
67.38 67.19 67.09 67.11 67.05 66.99 66.90 66.97 67.16 67.56 67.88 67.93 68.21 67.15 65.55 63.99 61.28 59.76 61.37 63.09 67.78 67.52 67.58 69.21 69.00 69.20 68.27 67.60 67.85 67.64 67.78 67.16 66.59
67.22 67.16 67.25 67.64 67.71 67.72 67.66 68.02 68.46 68.62 68.36 67.72 66.50 65.00 65.54 61.84 61.63 62.04 63.04 63.71 67.61 67.12 68.25 67.60 68.83 69.32 69.34 69.19 69.41 68.93 69.17 68.94 68.71
67.58 67.30 67.52 67.74 68.07 68.59 68.51 68.71 68.93 68.25 66.28 64.34 63.62 63.69 63.45 59.82 58.91 58.79 58.28 64.76 66.29 66.76 66.76 67.18 68.37 68.25 67.86 67.97 67.88 68.25 68.41 68.84 69.35
68.13 67.59 67.50 67.75 68.35 68.58 68.71 69.13 68.09 65.19 62.41 62.43 62.36 63.05 61.81 55.24 55.87 57.27 56.86 64.91 64.35 65.05 64.88 67.95 67.70 66.96 66.18 65.90 65.79 65.52 66.26 66.31 66.86
68.96 68.73 68.62 67.59 68.31 68.45 69.01 68.14 65.93 62.36 61.54 60.54 61.33 60.85 58.67 53.36 53.73 53.81 55.39 63.51 63.64 64.88 67.85 67.11 66.23 65.54 65.04 64.64 64.06 63.94 64.40 64.73 64.61
66.96 66.80 67.87 68.32 68.72 68.29 67.96 66.52 63.41 61.27 59.71 58.28 56.94 55.96 51.31 51.75 52.96 54.03 61.46 66.60 67.52 67.36 66.39 65.53 64.90 64.08 63.68 62.91 62.35 62.46 62.74 62.86 62.80
66.22 65.40 67.12 68.25 68.52 67.89 66.60 63.50 59.03 52.52 45.03 45.77 50.53 49.30 51.66 54.08 56.70 58.71 64.83 66.59 66.61 65.40 64.46 63.61 63.29 62.60 61.34 61.02 60.96 60.78 60.49 60.43 60.41
64.24 63.92 64.35 63.84 64.21 60.87 55.47 49.70 46.08 43.63 43.04 42.54 44.39 49.90 52.09 54.20 56.06 61.46 66.00 64.95 64.20 63.05 62.19 61.05 60.25 59.77 59.40 59.00 58.88 58.99 58.85 58.67 58.45
62.46 62.46 62.14 61.76 60.27 56.25 51.20 45.16 42.62 41.97 41.19 40.98 43.25 49.01 51.63 52.92 54.25 59.41 63.46 63.00 62.02 61.02 59.72 58.96 58.39 58.24 58.21 57.90 57.68 57.96 57.48 57.37 57.44
61.38 61.07 60.76 60.09 58.11 54.28 48.22 42.92 41.96 40.73 40.54 40.28 42.25 48.12 50.02 50.80 52.47 54.00 60.52 61.57 59.99 59.08 57.86 57.35 56.80 56.86 56.84 56.61 56.70 56.71 56.48 56.49 56.57
60.93 59.84 59.60 59.00 57.40 49.72 45.00 42.30 41.09 40.29 39.85 39.14 40.42 46.83 49.02 49.49 49.70 49.69 53.26 58.84 57.36 56.19 55.87 55.47 55.50 55.64 56.10 55.82 55.91 55.34 55.21 55.35 55.85
60.12 59.54 58.57 58.04 54.03 44.71 42.25 40.96 40.24 39.93 39.58 37.73 38.60 43.42 46.17 47.85 47.50 45.69 46.34 48.96 55.75 54.67 54.69 53.68 53.37 54.18 53.97 54.61 54.17 53.60 53.60 53.88 54.31
58.66 58.91 58.40 53.47 46.74 43.24 41.83 40.67 39.30 38.19 37.91 36.59 37.53 38.39 44.36 45.43 44.48 43.38 42.77 42.88 43.26 49.49 51.67 50.93 51.23 51.07 51.94 52.38 52.32 52.06 52.06 51.98 52.56
58.66 58.41 56.26 47.16 43.60 42.39 41.97 39.33 39.03 37.17 36.49 37.28 38.15 37.80 38.82 42.72 43.92 40.75 40.79 41.51 39.14 40.78 49.12 49.04 48.61 48.54 49.19 50.19 50.90 51.04 51.13 51.04 50.95
57.80 55.83 51.50 45.49 42.59 41.21 40.41 38.79 36.83 36.59 36.62 40.35 38.74 37.50 37.12 39.17 39.99 39.63 39.89 39.11 37.17 36.50 36.06 35.88 37.71 47.20 47.51 47.85 48.97 49.70 49.67 49.74 50.04
56.06 53.36 50.10 45.50 43.85 43.35 42.37 38.56 36.81 35.50 36.08 37.50 36.91 36.45 36.70 36.39 36.59 36.63 36.69 36.56 35.63 35.17 35.12 34.90 34.69 35.71 43.71 44.76 46.67 48.79 49.04 48.78 49.22
56.20 53.63 50.71 47.90 45.27 42.97 41.82 38.86 36.67 35.13 34.93 35.33 35.21 34.04 35.65 35.30 35.14 35.09 36.33 34.28 34.76 35.17 35.01 34.10 33.84 33.33 33.40 37.99 44.59 45.89 47.75 48.01 48.71
55.99 52.93 50.83 48.30 47.44 44.50 42.60 39.85 38.71 35.30 33.49 34.06 36.26 31.85 32.98 32.72 32.81 32.97 33.23 32.98 32.90 32.66 33.79 33.56 33.46 32.51 32.49 36.39 39.13 44.58 45.34 47.08 48.94
55.48 53.31 52.28 49.35 47.13 45.18 43.02 41.97 39.45 37.12 34.30 33.42 34.77 32.39 33.71 32.23 30.19 31.77 31.99 32.03 32.69 31.45 32.22 31.89 31.89 32.01 32.44 37.10 41.45 43.37 44.38 46.58 48.40
55.82 53.38 52.06 48.68 48.05 46.30 44.47 41.49 40.73 38.37 35.66 34.71 32.60 31.91 31.08 30.29 30.52 29.05 30.06 31.42 31.94 31.69 31.55 31.08 30.50 30.95 31.18 32.13 37.20 41.77 43.27 45.50 47.06

GFSFLT1_sfc_wetblb_033.txt.gz
Wetbulb
67.65 67.55 67.39 67.30 67.33 67.32 67.15 67.22 67.57 67.87 68.04 68.54 67.92 66.65 66.69 64.98 65.80 65.52 66.86 68.46 67.91 67.95 68.93 68.78 69.20 69.83 68.44 69.49 67.97 69.20 68.31 67.30 67.05
67.66 67.54 67.62 67.65 67.51 67.46 67.61 68.30 68.86 68.77 68.07 67.35 66.21 66.77 65.46 66.10 66.21 66.68 67.52 67.35 67.64 68.22 67.58 69.20 69.35 69.39 69.19 69.19 69.39 69.41 69.60 69.87 69.02
67.58 67.65 68.04 68.11 68.33 68.40 68.77 68.94 68.74 67.07 65.19 64.53 64.65 65.33 64.13 65.35 65.98 64.96 64.42 65.78 66.16 66.27 66.37 68.31 68.22 67.53 67.29 67.22 67.15 67.31 67.69 68.32 68.51
67.63 67.71 67.89 68.22 68.99 68.92 68.96 68.87 66.61 63.49 63.49 63.17 63.88 63.57 61.20 62.67 62.27 61.53 63.42 65.66 64.59 64.83 67.20 67.71 67.02 66.13 65.99 65.63 65.82 65.88 66.18 66.23 66.42
68.74 68.46 68.48 68.09 68.65 68.43 69.04 67.57 63.80 62.43 61.93 62.96 63.02 61.20 59.12 60.13 59.57 60.40 62.27 63.69 64.66 67.65 67.55 66.97 66.10 65.33 64.73 64.10 63.57 63.72 63.48 63.61 63.75
68.20 67.19 67.73 68.41 68.83 68.77 67.97 65.73 62.79 60.74 59.94 58.87 59.07 57.34 58.52 58.90 59.97 61.07 63.44 67.84 68.05 67.04 65.96 65.20 64.56 63.94 63.26 62.41 62.13 62.24 62.20 62.28 62.21
68.19 66.40 67.05 68.14 68.52 68.12 66.40 63.18 59.07 53.62 52.73 53.62 55.68 57.55 58.97 61.69 63.54 64.46 66.00 66.96 66.48 65.35 64.33 63.47 62.97 62.12 61.45 61.08 60.71 60.70 60.42 60.25 60.03
68.50 68.01 68.08 68.00 65.61 64.12 60.03 55.88 52.97 51.68 51.43 51.86 55.69 57.37 60.15 62.11 63.95 65.55 66.42 65.29 64.30 63.34 61.95 61.11 60.65 60.31 59.87 59.46 59.52 59.26 58.98 58.86 58.79
67.80 67.38 67.62 67.14 66.21 62.33 58.07 53.66 50.71 49.66 49.29 50.35 54.05 56.74 59.77 61.02 62.57 63.37 63.57 63.44 62.15 61.32 60.20 59.57 59.32 59.14 58.78 58.46 58.63 57.87 57.97 57.91 58.20
67.23 66.97 66.70 66.17 64.70 61.95 56.06 51.71 49.92 48.93 48.46 48.94 52.83 56.13 58.42 59.28 60.37 61.86 61.40 62.20 60.65 59.61 58.68 58.02 57.86 57.60 57.37 57.32 57.27 56.78 56.68 57.15 57.18
66.53 66.03 65.63 64.97 64.06 60.55 55.11 51.23 49.60 49.02 48.32 47.74 51.72 55.26 56.97 57.45 57.53 58.41 59.16 59.88 58.87 57.37 56.82 56.56 56.47 56.78 56.44 56.43 55.85 55.34 55.37 55.92 55.72
66.20 65.65 64.75 64.40 62.89 57.09 51.85 48.86 48.39 47.84 46.75 46.95 49.51 53.71 55.41 55.66 54.70 54.69 55.49 55.76 56.79 56.50 55.33 54.31 55.06 54.02 54.71 54.88 54.31 53.60 53.50 53.83 54.18
64.86 64.88 64.33 63.67 60.23 53.83 50.48 48.55 47.63 47.43 46.99 46.10 46.73 50.70 53.32 53.87 52.55 52.01 51.83 51.64 51.91 53.90 52.55 52.09 51.75 52.15 52.56 52.46 52.48 52.13 52.11 51.69 52.23
63.33 63.31 63.97 62.02 57.74 52.10 49.27 47.24 47.86 46.30 45.51 44.97 46.18 46.52 50.78 52.00 49.98 49.47 49.22 49.21 49.23 50.33 50.51 49.95 49.38 49.25 49.78 50.53 51.32 51.53 51.09 50.98 51.14
62.95 62.46 62.35 59.34 55.22 51.23 48.34 47.24 45.27 45.97 45.41 44.20 45.02 46.36 46.25 49.82 49.52 48.14 47.37 46.79 46.94 46.78 44.92 45.42 45.87 47.66 48.11 48.31 49.32 50.50 50.75 50.02 50.24
62.18 62.16 60.70 56.93 54.48 51.63 48.83 46.23 43.78 43.47 45.14 45.09 44.64 45.07 44.66 45.98 47.07 47.28 46.16 45.30 44.17 43.88 44.02 44.41 44.54 44.20 43.89 44.62 46.72 48.72 49.82 49.63 49.68
61.38 60.74 58.56 55.36 53.42 49.82 47.13 44.42 41.37 43.71 44.66 45.05 44.59 42.74 43.54 43.41 43.38 44.48 44.35 44.06 43.12 42.52 42.24 42.34 42.43 42.91 42.94 43.83 44.14 45.57 47.11 48.75 49.48
61.32 60.15 59.15 56.73 54.15 49.51 46.30 44.61 43.25 42.92 42.36 43.51 46.16 40.67 42.72 42.23 41.63 41.80 42.32 42.19 41.90 42.02 41.61 40.93 40.66 40.85 42.30 43.13 44.43 45.50 46.07 47.64 49.24
61.15 60.04 58.50 56.58 54.62 52.55 49.29 47.21 45.94 45.40 41.83 39.85 39.96 40.98 43.44 42.53 39.37 40.13 40.42 40.42 40.45 40.97 40.93 40.57 39.53 39.96 40.63 40.33 41.70 42.69 43.74 45.88 47.63
60.81 59.24 57.66 55.78 54.62 53.42 50.74 46.73 45.95 45.01 43.02 43.00 38.41 38.47 39.18 39.70 41.34 38.99 38.54 38.33 39.73 40.27 40.19 40.02 39.15 38.39 39.07 40.43 40.70 41.33 42.76 44.79 46.33

GFSFLT1_sfc_wetblb_039.txt.gz
Wetbulb
68.50 68.91 68.89 69.02 68.73 68.38 68.06 67.85 68.08 68.40 68.73 68.00 67.53 67.35 66.17 66.82 67.32 68.00 68.30 67.57 69.03 68.53 69.89 70.11 70.11 69.77 70.42 69.69 69.89 70.11 70.17 69.24 67.49
68.03 67.88 68.11 68.16 68.03 67.77 68.04 68.55 68.59 68.45 67.76 66.85 67.52 66.57 65.95 67.06 67.08 67.10 67.31 67.31 67.86 68.39 69.79 69.10 69.05 68.85 68.75 68.84 68.70 68.95 69.10 70.01 69.64
67.76 67.74 67.68 67.67 67.67 68.20 69.04 68.95 67.87 66.34 65.75 65.82 66.55 65.74 66.05 66.67 66.72 66.17 65.75 66.86 66.40 66.68 68.25 67.66 67.46 67.34 67.00 66.70 66.57 66.88 67.32 67.92 68.17
67.92 68.04 68.12 68.25 68.33 68.87 69.40 67.32 65.16 64.76 64.32 65.04 64.64 63.44 63.99 65.12 64.46 63.03 63.98 66.01 64.85 67.38 67.89 67.42 66.79 66.18 65.27 65.17 64.97 64.81 65.19 65.82 65.70
68.58 68.95 68.78 69.11 69.20 69.23 68.03 64.84 64.10 63.64 64.53 64.47 63.00 61.68 62.82 62.38 61.80 60.93 62.77 65.60 65.45 68.01 67.23 66.53 65.70 64.84 64.19 63.77 63.32 63.18 63.61 63.82 64.08
67.21 67.44 68.29 68.80 69.04 69.43 66.54 64.00 63.15 62.12 62.64 61.78 59.97 60.64 60.62 59.95 59.78 62.69 68.33 68.10 68.29 67.10 65.80 65.16 64.28 63.77 63.02 62.45 62.20 62.01 61.99 61.91 61.98
66.49 66.39 67.39 68.61 69.55 68.69 66.16 63.33 61.66 60.79 59.34 58.05 57.65 58.70 59.12 59.96 60.52 65.18 67.87 67.16 66.74 65.47 64.44 63.47 62.80 62.10 61.74 61.25 60.85 60.71 60.75 60.62 60.33
67.38 67.34 66.09 67.59 66.76 67.43 65.55 63.17 61.01 61.12 59.85 59.27 58.13 58.33 59.23 60.25 61.38 65.64 66.97 66.05 65.17 63.98 62.91 62.11 61.49 60.93 60.96 60.24 59.61 59.74 59.92 59.47 59.55
67.23 66.85 66.58 65.83 67.63 67.11 65.96 63.70 61.46 59.69 58.60 57.69 57.49 57.65 59.01 60.32 63.46 63.99 64.88 64.82 63.72 62.19 61.56 61.09 60.46 59.95 59.94 59.04 58.79 58.64 58.97 58.99 59.21
67.87 67.12 66.83 66.70 66.62 66.24 65.20 63.36 60.27 58.56 57.08 56.64 57.06 57.13 58.01 59.07 61.76 63.06 62.46 63.35 62.11 61.05 60.46 60.11 59.47 58.92 58.98 57.99 57.58 57.77 58.01 57.77 58.05
68.44 67.72 66.50 66.19 67.14 66.36 65.04 63.04 60.43 58.47 56.81 55.97 56.42 56.71 57.92 58.65 60.10 62.06 60.63 61.79 61.56 59.86 59.18 59.08 58.78 58.32 58.49 56.96 56.11 55.82 56.15 56.26 56.50
67.28 67.43 66.94 66.64 66.53 66.63 65.06 63.12 60.55 58.38 56.72 55.79 55.92 56.50 57.31 57.71 58.39 60.13 60.06 57.82 58.84 59.56 58.08 57.87 57.75 56.89 56.87 56.19 54.57 53.81 53.78 53.96 54.13
67.04 67.11 67.09 66.64 66.45 66.87 64.97 62.30 58.80 57.62 56.23 55.48 54.82 55.50 56.60 56.78 56.80 57.68 58.19 57.50 56.14 57.25 56.98 56.94 55.30 55.14 54.58 53.92 53.22 52.85 52.21 52.09 52.15
66.73 66.90 67.48 66.67 66.22 65.70 64.88 61.84 58.97 57.54 56.42 55.59 54.55 54.39 55.26 55.71 55.70 55.49 56.04 56.22 55.41 55.09 54.34 54.97 54.30 53.42 52.54 52.27 52.17 51.62 50.97 50.78 51.12
67.46 66.67 66.58 67.10 66.36 64.72 64.07 61.45 59.57 58.51 56.60 53.71 52.19 52.76 53.77 55.10 54.99 53.90 53.79 53.74 53.47 53.92 51.87 50.70 49.70 51.09 50.80 50.03 49.55 49.85 50.74 51.10 50.65
67.94 66.88 66.19 66.26 65.60 64.97 63.84 61.28 58.19 56.77 56.70 51.89 50.99 51.69 51.41 51.67 53.68 53.47 52.44 51.94 51.47 52.01 51.67 49.49 49.49 48.12 48.97 47.45 47.09 47.97 49.03 50.17 50.87
68.45 67.28 66.20 65.66 64.97 64.80 63.40 60.68 57.30 55.28 54.47 51.40 51.73 47.86 48.13 48.71 50.33 52.18 51.24 50.63 50.11 49.84 49.30 48.15 48.10 48.30 46.70 47.88 45.61 45.83 47.19 48.24 49.39
68.01 67.70 66.91 66.06 65.20 63.95 63.37 61.04 57.69 53.77 52.85 54.38 53.22 50.13 48.23 46.56 48.12 49.56 50.43 49.62 49.08 48.26 47.97 47.27 47.11 47.21 46.88 45.79 45.81 46.61 45.63 46.72 48.26
67.85 66.55 66.22 65.90 65.13 63.96 63.17 61.71 57.80 55.64 50.66 50.75 51.94 52.73 51.64 46.90 42.50 46.24 47.40 48.67 47.85 47.47 47.05 46.16 45.91 45.60 45.55 45.60 45.36 44.77 43.60 44.96 46.83
66.15 66.28 65.94 64.48 64.71 64.11 62.62 61.14 56.87 56.73 54.53 51.28 49.41 49.03 47.32 47.71 46.62 41.75 42.15 45.83 46.53 47.06 46.80 45.65 45.09 44.60 44.91 44.32 44.21 42.96 42.43 44.15 45.64

GFSFLT1_sfc_wetblb_042.txt.gz
Wetbulb
70.12 70.04 69.84 69.46 69.19 68.92 68.32 68.41 68.65 69.09 68.48 68.01 68.20 67.32 67.18 67.87 64.55 66.55 67.82 65.84 68.56 70.21 70.38 70.12 70.09 70.10 70.18 70.08 70.03 70.54 70.45 68.90 68.80
68.90 68.73 68.82 68.76 68.53 68.30 68.62 68.80 68.89 68.43 67.57 67.58 67.46 66.57 67.16 64.79 64.73 63.61 64.55 64.33 67.80 69.77 69.49 69.40 69.33 68.69 68.43 68.40 68.37 69.22 69.76 69.87 69.89
68.11 68.28 68.36 68.22 68.11 68.80 69.37 68.73 67.54 66.59 66.55 66.71 66.50 66.13 65.92 63.69 62.66 61.96 61.88 67.29 66.20 68.58 68.15 67.67 67.00 66.71 66.48 66.51 66.61 66.95 67.55 67.79 68.17
68.15 68.19 68.09 68.15 68.81 69.44 68.78 66.84 65.82 65.08 65.48 65.47 64.37 64.55 64.14 59.50 59.46 61.51 60.65 66.54 65.78 68.49 67.91 67.14 66.56 65.89 65.33 64.86 64.84 65.10 65.54 66.00 65.97
68.78 68.96 69.28 69.49 69.36 69.63 67.12 65.47 64.81 65.17 65.11 64.40 62.84 63.16 62.80 56.72 57.27 59.36 62.33 66.41 68.27 68.32 67.16 66.35 65.60 64.86 64.11 63.70 63.53 63.44 63.67 63.87 63.99
66.45 66.78 68.05 69.40 70.08 69.14 65.87 64.67 63.52 64.14 63.88 62.69 62.72 61.56 55.97 54.23 55.68 64.86 68.27 68.55 68.59 67.21 65.98 65.31 64.50 63.82 62.90 62.52 62.23 62.01 62.16 62.05 62.13
65.42 65.76 67.41 68.74 69.51 68.50 65.95 64.07 63.02 61.72 54.89 54.60 58.22 52.46 53.74 54.62 57.23 64.92 68.22 67.86 67.24 66.00 64.74 63.82 62.91 62.51 61.81 61.40 61.12 61.26 60.95 60.68 60.81
64.48 64.16 64.50 65.55 66.02 64.92 63.69 60.74 56.70 54.54 54.71 52.90 52.48 53.14 53.92 54.38 59.72 65.58 67.44 66.57 65.76 64.58 63.35 62.51 61.96 61.67 61.05 60.25 60.07 60.21 59.96 60.26 60.11
63.25 64.12 62.28 63.40 65.31 64.51 62.37 60.13 58.11 56.04 54.27 52.93 51.96 52.87 53.35 53.95 62.48 63.26 65.40 65.77 64.50 63.41 62.52 61.83 61.12 61.03 60.03 59.67 59.22 59.39 59.36 59.58 58.84
63.68 63.02 63.44 62.20 64.42 63.39 62.44 59.98 56.26 53.98 52.98 51.61 52.05 51.98 52.86 52.92 60.57 59.72 62.94 64.16 63.34 62.27 61.82 61.37 60.58 60.26 59.48 58.65 58.54 58.53 58.24 58.52 58.10
63.99 63.38 64.16 62.73 62.99 61.99 61.27 59.62 55.56 53.48 51.59 50.73 51.33 51.34 52.46 52.77 58.39 58.22 59.02 62.43 62.72 61.61 61.07 60.83 60.26 60.04 59.25 57.82 57.07 56.95 56.82 57.17 56.80
64.63 64.10 63.41 63.65 64.35 63.26 61.07 59.23 56.27 53.34 51.84 50.38 50.59 51.30 51.79 52.67 54.66 57.51 55.80 57.37 60.06 61.06 60.01 59.89 59.65 59.25 59.07 57.41 55.91 55.16 54.89 54.83 54.44
63.30 63.01 63.72 64.16 63.91 64.42 61.34 58.60 54.62 52.30 50.46 49.42 49.38 50.42 51.28 52.03 52.33 54.32 55.33 53.50 53.86 58.28 60.10 59.40 58.63 57.91 57.50 56.14 54.89 54.22 53.27 53.30 52.58
63.72 62.72 63.54 64.40 63.63 63.87 63.96 59.02 53.84 51.53 50.49 50.27 48.74 48.88 49.76 50.76 52.56 51.50 52.25 52.58 51.94 50.86 56.34 58.35 57.53 56.97 55.69 55.20 54.84 53.69 52.09 51.88 51.65
63.61 62.59 62.54 64.79 63.70 63.25 63.47 59.14 54.88 52.91 51.37 51.80 49.23 47.29 48.23 49.65 49.81 49.64 51.32 49.82 50.29 48.94 47.77 47.79 48.69 55.45 54.34 53.90 53.43 52.61 51.90 51.62 51.31
64.23 63.69 62.65 62.91 63.52 63.54 62.52 58.53 54.92 52.71 51.17 46.79 44.81 45.52 46.04 46.07 48.61 48.66 47.83 48.04 48.07 47.33 47.02 46.24 45.09 47.46 52.91 52.32 51.22 50.58 50.62 50.82 51.61
64.95 64.31 63.23 62.42 61.81 61.60 61.35 59.02 53.99 51.84 50.28 44.99 44.37 41.70 43.42 44.23 45.37 47.56 47.60 46.00 46.75 46.56 47.32 45.60 44.33 44.75 44.74 44.46 49.25 48.91 49.25 49.71 50.19
65.69 65.72 63.55 62.68 61.36 61.17 61.13 59.56 56.33 52.33 49.04 49.10 46.96 43.95 42.44 40.89 43.16 44.81 46.54 45.49 44.44 44.96 45.42 44.78 44.38 43.91 42.51 46.42 46.31 47.63 48.61 49.17 49.66
66.17 65.71 65.09 64.78 62.05 60.77 60.71 60.51 57.70 52.94 49.72 47.43 50.82 48.12 46.16 41.69 38.59 43.57 45.33 45.97 45.16 45.04 44.25 44.00 43.58 43.15 42.16 44.52 46.23 48.27 46.49 46.97 47.87
64.84 65.08 64.89 64.44 63.94 62.76 59.94 59.47 57.89 54.79 51.66 49.82 47.41 47.08 43.79 43.14 41.60 36.90 40.35 43.57 44.44 43.84 44.26 43.74 43.12 42.52 42.20 41.67 45.96 47.30 46.21 46.44 47.04

GFSFLT1_sfc_wetblb_048.txt.gz
Wetbulb
71.73 71.39 70.61 69.72 69.28 68.65 68.56 68.96 68.56 68.19 68.20 68.05 67.94 67.96 67.53 66.75 64.47 63.90 65.69 66.00 70.32 70.28 70.20 70.13 69.93 69.71 69.55 70.39 70.35 69.70 69.66 69.96 69.78
70.56 70.19 69.78 69.19 68.74 68.45 68.60 68.91 68.19 67.70 67.77 67.69 67.72 66.93 66.17 63.10 61.98 61.78 62.29 65.85 69.78 69.54 68.76 68.72 68.74 67.98 68.23 68.38 69.25 69.50 69.51 69.74 69.90
69.90 69.61 69.32 68.98 68.63 68.68 68.75 68.57 67.73 67.20 67.10 66.95 66.58 65.53 65.25 62.28 60.81 61.14 60.98 68.11 68.30 67.17 67.16 66.76 66.72 66.62 66.39 66.75 66.84 68.01 68.06 68.32 68.67
69.09 69.06 68.90 68.77 68.79 68.95 68.33 67.44 66.87 66.63 66.31 65.78 65.10 64.42 62.73 58.08 59.49 61.21 60.66 67.33 68.15 68.00 66.79 65.99 65.77 65.18 65.29 65.10 65.07 65.61 66.35 66.49 66.45
68.83 68.96 69.06 69.05 69.52 68.81 67.51 66.61 65.81 65.87 65.56 64.61 64.15 62.80 60.82 55.97 57.07 58.79 59.86 67.51 68.74 67.81 66.78 65.26 64.93 64.31 63.74 63.54 63.74 63.42 63.86 64.31 64.64
66.51 66.47 67.85 69.19 69.91 68.16 66.56 65.90 65.84 66.26 65.37 64.69 63.35 60.19 52.75 53.92 58.77 58.77 65.48 69.29 68.89 67.35 66.01 64.83 64.19 63.33 62.79 62.57 62.65 62.56 62.79 62.91 63.12
65.82 64.97 67.07 68.82 69.43 68.13 66.56 65.66 65.38 63.71 56.26 54.64 58.72 51.03 50.69 58.18 61.89 63.33 68.42 69.24 68.36 66.59 65.48 64.19 63.24 62.37 61.81 62.05 61.74 61.71 62.00 61.97 61.94
62.83 62.69 64.72 65.62 66.16 64.73 64.23 61.88 58.22 54.38 51.59 50.78 49.04 49.70 50.08 54.43 62.27 65.76 68.72 68.38 67.18 65.99 64.79 63.19 62.60 61.81 61.22 61.34 60.80 61.23 60.76 60.46 60.32
61.53 62.11 62.90 63.20 64.42 62.63 61.17 58.94 56.30 52.79 52.05 51.46 50.22 49.94 49.97 55.08 61.39 63.58 66.59 67.60 66.42 65.48 63.45 62.80 62.60 61.49 60.81 60.66 60.39 60.70 59.85 59.79 59.93
61.63 61.89 61.79 62.48 63.31 62.37 60.73 59.60 58.42 54.96 53.68 51.20 49.94 49.22 49.21 56.22 60.81 61.22 63.96 66.05 66.14 64.55 63.68 62.79 62.57 61.38 60.79 60.64 60.16 60.26 59.55 59.25 59.32
61.98 61.93 61.38 61.59 63.27 63.60 62.14 60.79 59.24 56.78 53.32 50.42 48.83 48.96 49.07 57.10 59.23 59.91 61.53 64.72 65.38 64.80 63.76 63.01 62.52 61.91 61.06 60.63 60.01 60.03 59.26 58.84 58.61
62.04 61.95 61.56 61.04 61.33 62.77 61.81 61.11 59.17 55.72 53.21 50.68 49.96 49.23 48.21 51.19 58.00 58.52 58.81 61.25 62.72 64.16 63.85 63.20 62.44 62.05 61.21 60.66 59.96 59.25 58.98 58.35 57.80
62.12 62.18 61.71 62.02 60.69 61.28 60.66 59.67 57.09 53.36 50.25 49.49 48.53 47.86 48.12 48.91 56.26 56.76 56.84 57.09 57.97 61.69 63.71 63.23 62.41 62.08 61.49 60.55 59.72 58.93 57.84 57.10 56.69
63.08 62.92 62.75 61.79 61.15 60.46 60.77 59.16 56.11 53.07 50.32 48.82 47.82 46.89 47.21 48.22 53.09 55.14 54.95 54.60 54.85 54.96 59.99 61.93 61.83 62.00 61.73 60.99 59.91 58.58 57.32 56.31 55.62
61.77 62.19 62.61 62.26 61.78 61.58 60.19 59.65 56.03 53.44 52.24 50.64 48.76 46.61 46.64 47.18 47.73 52.93 55.25 53.17 52.76 52.50 52.56 55.68 56.83 60.57 60.98 60.82 59.86 58.70 57.25 56.43 55.36
61.81 61.38 60.64 61.34 62.06 62.29 61.68 60.40 57.98 53.76 50.33 49.62 48.06 46.13 45.65 45.09 46.67 47.29 51.86 52.78 52.18 50.72 50.55 51.54 51.52 54.84 59.89 60.15 58.99 58.85 57.64 56.16 55.25
64.36 62.07 61.18 60.48 62.14 61.07 60.57 60.01 57.05 56.22 51.50 49.55 44.78 45.92 45.27 44.23 45.44 45.35 47.49 48.99 51.58 50.40 49.58 48.55 47.67 48.50 51.26 52.41 58.65 58.03 57.83 56.82 55.90
63.26 63.50 62.22 60.43 61.20 61.61 61.25 60.57 58.18 58.15 51.96 50.64 49.40 41.00 42.91 41.52 42.35 43.09 45.17 46.34 45.94 49.39 50.59 48.33 47.69 46.83 48.12 52.01 54.56 56.77 55.92 55.53 55.44
63.73 63.58 62.93 62.65 60.91 60.21 60.62 61.35 60.51 56.80 53.81 50.52 50.82 49.31 45.33 42.53 43.27 41.90 41.67 43.99 44.55 44.25 46.50 48.17 48.27 48.00 46.96 48.85 50.78 53.87 53.32 53.53 54.43
62.86 63.52 63.28 61.71 61.53 61.19 60.17 58.27 58.63 58.51 58.97 50.66 49.68 48.33 46.30 43.79 42.95 42.05 42.41 46.41 45.46 46.38 45.83 47.28 47.73 46.16 45.30 45.52 47.93 51.84 51.83 52.42 53.60

GFSFLT1_sfc_wetblb_051.txt.gz
Wetbulb
72.71 71.62 70.38 69.21 68.62 68.19 68.63 68.51 68.29 68.10 68.19 68.14 68.25 67.60 68.23 66.42 63.47 63.34 66.84 66.59 70.22 70.66 70.06 69.95 69.75 69.34 70.28 70.34 69.30 69.55 70.14 70.23 68.48
71.51 70.80 69.59 69.10 68.64 68.18 68.69 68.41 67.89 67.80 67.86 67.96 67.60 66.28 67.87 62.82 61.25 61.67 64.08 65.86 69.46 69.31 68.99 68.63 68.46 68.20 68.62 68.53 69.52 69.57 69.71 70.27 69.33
70.18 70.05 69.55 68.93 68.33 68.13 68.57 68.11 67.25 66.82 67.04 67.08 66.03 66.90 65.80 62.14 60.53 60.67 61.74 68.64 68.18 67.08 66.80 66.79 66.72 66.34 66.49 66.41 67.13 68.08 68.23 68.82 69.21
69.71 69.40 69.08 68.76 68.32 68.30 68.17 67.45 66.71 66.36 66.22 65.80 64.94 65.39 64.21 59.12 59.81 60.91 60.05 68.13 66.89 66.90 65.50 65.31 65.28 65.15 64.91 64.89 64.90 64.91 66.41 65.99 66.45
69.05 69.05 69.16 68.83 68.75 68.48 67.53 66.33 65.73 65.51 65.32 64.63 64.00 62.63 61.38 57.46 57.69 58.54 59.12 66.17 68.55 67.33 65.85 64.26 64.38 63.90 63.28 63.34 63.21 63.24 63.51 63.90 64.59
66.32 66.43 67.54 68.93 69.63 68.30 66.62 65.75 65.29 66.27 64.86 64.62 63.61 57.66 52.33 53.20 55.50 56.76 62.60 66.94 68.78 67.20 65.37 63.91 63.55 62.72 62.26 62.27 62.32 62.52 62.77 63.06 63.18
65.28 64.64 66.76 68.70 69.30 68.32 66.83 66.03 65.52 62.95 55.22 53.31 55.14 50.27 49.81 55.97 59.73 59.79 64.60 68.84 68.79 66.75 64.97 64.21 62.84 61.86 61.69 61.66 61.41 61.57 61.89 61.97 62.06
63.13 62.39 64.12 64.31 65.68 64.64 64.54 62.32 58.56 54.94 51.29 50.34 49.25 48.60 49.27 50.96 60.57 63.90 67.50 69.39 67.61 66.24 65.40 63.58 62.55 61.52 61.33 61.07 60.85 60.85 60.63 60.42 60.52
60.94 60.96 61.99 62.88 64.15 63.07 61.17 59.32 57.22 53.64 51.75 50.75 50.88 49.06 49.03 51.34 60.19 62.39 67.12 68.66 67.56 66.22 65.06 63.29 62.50 61.66 61.13 60.66 60.49 60.31 59.52 59.72 60.02
60.58 60.64 61.27 61.77 62.52 62.25 60.63 59.39 58.26 55.78 52.60 51.99 51.78 50.83 48.13 50.55 59.18 60.96 63.56 66.54 67.36 66.24 64.67 63.48 63.20 61.90 61.17 60.86 60.48 60.09 59.46 59.33 59.51
60.57 60.73 60.90 60.99 61.79 62.41 61.46 60.11 59.25 58.43 55.87 53.49 51.43 49.90 49.28 50.18 57.15 60.25 60.86 64.82 66.27 66.29 64.76 64.06 63.64 62.66 61.72 61.17 60.63 60.31 59.51 59.21 59.13
61.25 61.10 60.55 61.16 61.09 61.88 61.57 60.69 59.84 58.48 56.41 52.41 50.75 49.07 48.19 48.88 57.05 59.06 59.21 60.95 63.50 65.26 65.00 64.49 63.70 63.15 62.26 61.63 61.03 60.40 59.71 58.96 58.50
61.54 61.32 61.11 61.22 59.87 60.68 60.68 60.79 59.53 57.94 56.20 53.15 50.57 48.33 47.58 47.61 51.49 56.96 57.79 58.20 59.53 62.15 64.90 65.15 64.12 63.31 62.66 61.95 61.52 60.29 59.65 58.92 58.13
62.73 61.90 61.65 60.93 60.48 59.71 60.14 59.24 58.32 56.56 55.11 52.20 50.01 47.81 46.82 47.33 49.60 54.30 56.14 56.32 57.19 56.46 60.33 63.02 63.33 63.53 62.76 62.38 61.66 60.58 59.32 58.19 57.53
61.74 62.19 61.74 61.11 60.77 60.10 58.86 59.16 56.72 55.56 54.83 54.43 51.22 48.96 47.02 46.54 46.78 49.76 55.54 55.22 55.45 54.69 54.84 56.11 58.49 61.70 63.02 62.41 62.05 61.17 59.82 58.41 57.13
61.22 61.38 60.82 61.13 61.20 61.26 60.62 59.27 58.55 56.97 51.04 49.32 48.00 47.00 47.75 45.71 46.35 46.91 50.59 53.83 54.15 53.22 53.45 53.21 53.86 55.71 62.00 62.27 62.00 61.56 60.48 59.04 57.75
63.53 61.45 60.80 60.25 60.76 60.24 60.00 59.58 57.47 56.10 52.35 51.46 46.86 48.27 48.66 45.03 45.91 45.08 47.36 49.10 53.27 52.74 52.55 51.16 51.42 52.38 53.88 55.69 61.03 61.16 60.48 59.93 58.17
63.34 63.66 62.40 60.80 59.88 60.13 60.08 59.42 58.54 58.81 51.79 51.47 54.51 46.15 45.22 43.40 44.37 42.61 43.93 46.11 47.07 50.61 50.78 50.48 51.12 50.96 51.93 54.32 56.88 59.31 59.74 59.63 59.06
62.39 62.46 62.10 61.92 60.36 59.49 60.07 60.54 60.09 57.07 56.42 49.52 51.57 51.11 48.12 47.18 46.26 44.66 42.56 42.23 44.70 45.07 48.68 50.08 49.54 50.00 50.37 52.20 53.98 56.30 57.36 57.76 57.85
57.84 60.23 61.10 60.94 60.50 60.34 59.29 57.95 57.97 58.14 59.03 54.58 48.81 50.82 48.62 46.63 46.26 50.01 48.41 44.91 46.32 46.51 45.30 48.84 49.57 49.62 49.42 49.04 50.92 55.02 55.97 56.44 56.06

GFSFLT1_sfc_wetblb_054.txt.gz
Wetbulb
72.52 71.39 69.71 68.84 68.02 68.37 68.36 68.29 68.19 68.21 68.40 68.40 68.12 68.18 68.00 65.66 62.54 63.40 66.90 66.71 70.79 70.72 70.31 69.95 69.89 69.72 70.55 70.12 69.79 70.23 70.63 69.95 66.27
71.79 70.85 69.49 68.84 68.14 68.53 68.58 68.28 68.07 68.15 68.10 68.20 66.70 68.48 66.87 61.83 60.65 62.25 64.11 65.88 69.75 69.50 68.98 68.50 68.28 68.04 68.65 68.60 69.33 69.52 70.22 69.82 68.23
71.15 70.24 69.31 68.79 68.15 68.08 68.27 67.83 67.39 67.42 67.53 67.21 65.83 68.10 65.51 61.56 60.04 60.76 62.52 68.08 67.63 67.27 66.72 66.90 66.81 66.51 66.24 65.97 66.94 67.44 68.18 69.24 69.45
70.19 69.70 69.14 68.60 68.01 67.96 67.98 67.30 66.89 66.70 66.72 66.11 65.18 66.52 63.96 58.99 59.33 60.24 59.95 65.92 66.43 66.68 65.34 65.29 65.31 65.21 64.79 64.69 64.79 64.88 65.80 66.73 67.10
69.86 69.17 69.12 68.62 68.33 68.15 67.38 66.34 65.88 66.03 65.81 65.05 63.15 62.14 60.93 57.19 57.53 58.04 58.38 65.58 67.84 66.80 65.18 64.39 64.36 63.60 63.11 63.12 63.06 63.35 63.07 64.74 64.18
64.87 66.48 67.55 68.92 69.25 68.35 66.97 65.97 65.33 65.28 63.46 63.43 62.01 57.18 51.86 53.64 54.80 55.64 61.10 65.80 68.82 67.44 64.86 63.89 63.28 62.38 61.98 62.14 62.32 62.65 62.53 62.91 62.96
65.00 64.37 66.34 68.34 69.21 68.46 66.54 65.66 65.46 61.17 54.74 53.20 55.12 50.54 49.35 51.49 56.70 58.48 62.84 66.03 69.56 67.03 64.82 64.18 62.70 61.54 61.36 61.30 61.12 61.51 61.86 62.11 62.34
62.54 61.85 63.47 63.53 64.82 64.32 64.27 61.57 58.50 54.83 51.23 50.01 48.86 48.22 48.35 48.67 57.29 61.53 65.58 66.97 69.16 66.56 65.38 63.84 62.56 61.34 61.05 60.78 60.53 60.75 60.68 60.56 60.77
60.53 60.44 61.16 61.94 62.82 62.67 60.93 59.36 58.02 54.70 51.69 50.21 50.02 49.48 50.19 50.10 54.87 60.34 65.09 68.19 68.32 66.80 65.46 63.96 62.66 61.79 61.15 60.85 60.30 59.92 59.27 59.36 59.81
59.71 59.47 59.93 60.83 61.82 62.15 61.08 59.40 58.31 56.60 54.00 51.25 50.71 51.03 49.12 48.26 51.70 58.95 62.75 66.57 68.11 67.12 66.32 64.42 63.67 62.66 61.53 61.20 60.42 60.15 59.35 59.45 59.55
59.69 59.78 59.81 60.11 61.15 61.70 61.38 60.12 59.01 58.25 57.28 56.41 53.69 50.94 48.59 47.78 50.53 57.59 60.20 64.35 66.30 67.35 66.31 65.09 64.41 63.80 62.37 61.66 60.85 60.45 59.61 59.24 59.31
60.55 60.05 59.68 60.17 60.48 60.95 60.86 60.32 59.36 58.41 58.13 56.25 54.64 51.47 48.83 47.73 49.09 55.86 58.63 60.33 63.30 65.69 66.27 65.59 64.97 64.18 63.59 62.49 61.67 60.75 60.17 59.41 59.15
60.92 60.37 60.12 60.59 60.04 60.09 59.83 59.68 58.95 58.20 57.68 56.87 56.08 52.93 49.43 47.92 47.47 53.13 56.96 58.12 59.75 62.49 65.66 66.17 65.53 64.80 64.05 63.35 62.65 61.65 60.51 59.89 59.04
62.66 61.68 61.61 60.47 59.79 59.03 59.48 58.93 58.71 57.45 57.38 57.10 56.36 53.19 50.36 48.18 48.25 48.87 54.10 56.46 58.14 58.26 61.08 63.51 64.17 64.85 64.37 63.88 63.30 62.32 60.98 60.03 59.32
62.83 62.67 61.75 60.50 59.84 59.40 58.33 58.76 57.19 58.55 57.61 56.86 55.61 51.70 50.82 50.53 47.06 47.14 51.21 54.76 56.46 56.69 56.44 57.06 59.77 62.43 64.37 63.69 63.59 62.89 61.85 60.53 59.20
60.84 61.22 60.59 60.66 60.40 60.62 59.76 58.63 58.32 56.52 53.09 52.41 51.79 49.06 48.76 48.12 48.31 46.48 48.60 51.18 54.08 54.46 55.30 56.00 55.28 57.05 62.81 63.68 63.04 63.12 62.70 61.73 60.07
62.85 60.75 60.36 59.99 60.39 59.75 59.45 58.47 56.14 56.21 52.63 54.39 48.53 51.93 51.78 46.50 46.99 45.54 46.18 46.36 51.49 53.03 53.48 53.18 52.79 53.51 54.32 57.55 62.50 62.74 62.68 62.53 61.43
63.28 63.27 62.50 60.69 59.58 59.49 59.18 58.61 58.21 58.09 52.36 51.59 56.34 49.13 48.77 47.03 47.48 44.12 43.40 44.23 45.75 49.71 51.18 51.31 51.29 51.39 52.01 55.23 58.41 60.77 61.91 61.67 61.58
60.13 61.51 61.88 61.63 60.50 59.26 59.54 59.38 59.13 56.99 58.55 51.51 52.66 52.80 50.05 50.16 49.33 48.52 45.56 42.93 43.04 44.56 47.81 50.20 50.56 51.60 52.24 53.73 55.11 57.29 59.81 60.47 60.21
54.45 55.39 56.83 59.33 60.58 61.15 59.24 58.03 57.01 57.43 58.60 55.99 51.90 51.78 49.63 47.64 48.12 50.53 51.25 48.09 47.08 46.07 45.37 47.99 50.16 50.59 49.82 50.82 52.14 56.01 57.46 59.28 59.27

GFSFLT1_sfc_wetblb_057.txt.gz
Wetbulb
72.29 70.55 69.16 68.42 68.80 68.61 68.59 68.62 68.66 68.84 68.87 68.60 68.68 68.83 67.63 66.48 68.18 69.59 69.92 70.46 70.75 70.47 69.80 69.77 69.63 69.80 70.29 70.30 70.27 70.67 70.53 67.13 66.44
71.87 70.17 69.23 68.57 68.83 68.85 68.49 68.43 68.59 68.47 68.61 67.72 67.86 68.18 65.84 65.83 67.25 68.53 69.66 69.69 69.46 68.36 68.16 68.08 67.88 67.70 67.92 68.15 68.77 69.15 69.94 69.20 68.72
71.11 70.03 69.35 68.76 68.34 68.71 68.46 68.05 67.92 67.94 67.89 66.33 67.75 67.32 64.99 64.51 64.96 67.08 68.41 68.30 67.20 66.85 66.68 66.71 66.77 66.64 66.64 66.38 66.70 67.25 67.78 68.99 69.19
70.92 70.05 69.19 68.70 68.20 68.44 68.33 67.66 67.32 67.28 66.87 65.22 67.36 65.73 63.54 64.81 64.38 63.69 66.46 66.37 66.93 66.33 65.48 65.73 65.48 64.82 64.51 64.51 64.74 65.20 65.37 66.12 66.83
70.43 69.26 69.45 68.71 68.28 68.22 67.60 66.91 66.41 66.57 66.00 64.47 63.35 62.55 61.51 64.05 63.76 64.20 63.97 65.29 67.65 66.91 65.55 64.81 64.44 63.61 63.26 63.35 63.42 63.46 63.48 63.77 64.55
68.62 67.25 67.97 69.06 68.92 68.20 66.87 65.93 65.69 65.02 64.10 63.95 61.05 58.94 60.46 62.06 62.47 62.27 60.87 64.44 68.56 67.18 65.20 64.52 63.47 62.58 62.20 62.45 62.57 62.97 62.69 62.57 62.63
67.48 66.07 66.48 68.36 69.15 68.56 66.55 65.69 65.10 61.62 61.82 61.49 58.45 60.16 58.27 58.87 61.47 62.60 63.18 64.79 67.70 67.18 65.53 64.56 62.97 61.75 61.62 61.48 61.50 61.86 62.18 62.33 62.23
67.39 67.24 67.40 68.34 66.33 68.81 67.51 66.19 64.55 61.11 59.56 58.35 58.00 57.30 56.98 57.87 58.99 63.01 64.35 66.56 68.59 67.06 65.73 64.21 62.83 61.52 61.24 60.93 60.71 61.07 60.96 60.76 60.78
65.65 65.55 66.05 66.84 67.60 67.61 67.40 66.28 64.87 62.68 59.19 57.95 57.63 57.57 57.19 57.40 58.35 61.47 63.25 66.56 68.58 67.60 65.84 65.07 63.34 62.12 61.32 61.09 60.39 60.20 59.49 59.59 59.87
64.59 64.73 64.80 65.66 66.65 66.71 66.72 66.07 64.93 64.01 62.58 60.50 58.09 57.58 58.07 57.54 57.07 58.90 61.47 64.76 68.30 68.46 66.93 66.29 64.44 63.26 62.11 61.61 60.60 60.52 59.39 59.46 59.57
64.12 63.76 63.56 63.96 65.21 66.07 66.48 66.11 65.32 64.55 63.86 63.49 63.24 61.73 59.13 57.38 56.35 57.33 60.55 63.20 66.24 67.54 67.47 66.69 65.41 64.79 63.55 62.36 61.57 60.94 60.05 59.49 59.55
64.78 64.09 63.60 63.99 64.46 64.65 65.19 65.22 64.97 64.32 63.99 63.38 63.55 62.52 60.98 58.06 56.45 56.49 58.83 61.61 62.78 65.44 67.19 66.96 66.16 65.38 64.59 63.97 62.59 61.65 60.66 60.00 59.64
65.32 64.62 64.29 64.89 64.49 64.34 64.22 64.26 63.89 63.69 63.60 63.38 63.50 63.13 62.39 61.44 59.07 56.35 57.24 59.89 61.97 63.52 65.46 66.64 66.66 66.11 65.52 64.50 63.98 62.62 61.47 60.77 59.91
66.12 65.64 65.64 65.30 64.68 64.24 63.97 63.57 63.36 63.17 63.04 62.59 62.96 62.71 62.42 62.42 60.24 58.89 56.52 57.55 60.07 62.02 62.94 63.95 64.80 65.77 65.61 65.28 64.31 63.89 62.65 61.28 60.56
66.33 66.12 65.80 65.46 64.70 64.34 63.67 63.21 62.91 62.45 62.55 61.02 60.71 62.08 61.99 61.20 60.51 60.02 57.65 56.36 57.29 59.55 61.56 62.99 63.65 62.74 64.91 64.93 64.82 64.41 63.41 62.46 61.12
65.06 65.30 65.27 64.91 64.18 64.40 64.05 63.15 61.75 61.57 60.62 59.54 60.94 60.23 59.59 59.68 59.96 59.37 56.83 56.66 56.53 57.31 58.57 60.34 61.90 62.59 62.94 64.42 64.41 64.17 64.11 63.43 62.28
65.75 64.66 64.12 63.82 63.43 63.30 63.24 62.48 61.53 61.27 59.48 60.69 57.05 56.78 58.52 56.47 55.89 55.61 54.43 54.31 54.16 55.03 56.21 57.50 58.88 60.27 61.41 61.68 63.28 63.91 63.82 63.74 63.46
65.50 65.93 65.54 64.68 63.15 62.88 63.18 62.67 61.56 60.98 59.30 59.18 60.07 53.58 53.56 53.52 55.24 53.29 51.81 52.15 52.18 53.76 54.71 55.44 56.26 57.46 58.43 58.93 59.20 60.80 62.65 62.91 62.96
58.01 62.35 63.60 64.02 63.60 62.32 62.45 62.52 61.94 61.14 59.82 56.07 55.95 57.08 53.78 53.05 51.49 53.79 53.29 48.70 50.07 49.07 51.37 52.63 54.03 54.15 54.37 55.31 56.01 57.23 59.57 61.92 62.57
56.48 56.98 57.90 59.15 59.42 60.22 60.65 60.67 60.69 60.63 60.69 58.42 56.69 56.40 53.66 51.44 51.43 51.29 55.38 53.29 53.37 52.14 51.44 51.99 50.83 52.00 54.02 54.66 54.60 55.39 57.19 59.82 61.57

GFSFLT1_sfc_wetblb_060.txt.gz
Wetbulb
71.34 69.43 68.68 68.91 68.75 68.75 68.98 69.07 69.23 69.17 68.90 68.95 69.18 68.29 66.77 68.01 69.09 70.01 70.07 69.21 69.74 69.63 69.25 69.11 69.05 69.24 69.21 69.57 70.09 70.28 68.44 67.07 67.21
71.05 69.59 68.68 69.07 68.90 68.68 68.93 69.00 68.88 68.89 68.27 67.68 68.85 67.17 65.65 66.64 67.11 67.89 68.66 69.10 68.69 68.13 67.55 67.61 67.54 67.36 67.40 67.48 67.97 68.94 69.97 69.78 69.56
70.98 69.86 69.00 68.57 69.01 68.78 68.35 68.19 68.37 68.22 67.17 67.54 68.68 66.22 64.97 65.81 65.54 66.20 66.97 67.96 67.54 66.94 66.71 66.53 66.44 66.04 65.85 66.10 66.57 66.77 67.36 68.21 68.99
70.94 69.92 69.23 68.53 68.68 68.70 68.13 67.68 67.53 67.41 66.30 67.07 67.60 65.41 63.70 66.00 65.20 63.41 65.61 66.93 67.13 66.28 65.64 65.72 65.30 64.55 64.47 64.44 64.64 64.98 65.14 65.52 66.40
70.73 69.53 69.39 68.59 68.53 68.28 67.44 66.90 66.70 66.42 65.67 63.87 63.86 62.63 63.57 65.18 64.92 64.70 63.77 64.91 67.75 66.32 65.50 65.01 64.23 63.33 63.24 63.52 63.94 63.99 63.76 63.99 64.25
69.05 67.58 68.37 68.81 68.35 67.99 66.86 66.06 65.83 64.85 64.58 62.97 60.44 59.34 64.83 64.10 63.72 63.52 61.80 63.60 66.82 67.16 65.62 64.87 63.52 62.37 62.36 62.28 62.53 63.03 63.11 62.92 62.72
68.20 67.16 67.09 68.23 68.87 68.20 66.46 65.78 65.11 63.27 65.02 64.48 61.12 64.94 64.06 62.73 62.68 63.25 63.25 65.05 66.10 68.80 65.54 64.64 63.21 61.69 61.59 61.32 61.55 62.04 62.38 62.22 62.12
67.11 67.68 67.34 68.47 66.69 68.69 67.71 67.19 66.52 63.89 63.23 62.79 62.30 61.80 61.56 61.62 61.36 63.67 63.14 65.33 66.92 67.65 66.35 64.89 63.36 61.78 61.40 61.01 60.80 61.07 60.79 60.80 60.82
66.86 65.95 66.72 67.19 67.30 67.41 68.30 68.15 67.64 66.53 64.45 62.14 61.31 61.24 61.48 61.35 61.28 62.96 62.51 64.24 67.29 68.86 67.49 65.81 64.27 62.78 61.82 61.47 60.59 60.33 59.60 59.73 59.95
67.97 66.59 65.43 65.74 66.69 66.95 67.12 67.35 66.97 66.50 65.92 65.68 64.29 63.67 63.13 62.66 62.16 61.53 60.69 62.23 66.06 69.10 68.69 66.98 65.70 64.17 62.99 62.02 61.16 60.68 59.47 59.53 59.67
68.15 67.60 66.36 65.35 66.12 66.75 67.40 67.82 67.72 67.39 67.13 66.22 65.93 65.90 65.85 64.56 62.84 62.05 62.29 62.24 64.14 67.37 68.58 67.82 67.05 65.63 64.61 63.32 62.42 61.26 60.60 59.75 59.70
68.10 67.78 67.41 67.37 67.20 66.79 67.14 67.36 67.52 67.15 67.19 66.86 66.98 66.71 66.64 65.98 64.19 63.02 62.81 62.86 61.64 64.22 67.57 67.90 67.32 66.27 65.61 65.21 64.04 62.70 61.60 60.49 59.94
68.56 67.84 67.80 68.36 68.17 67.84 67.34 67.16 66.71 66.65 66.68 66.63 67.01 66.84 66.74 66.50 66.23 65.79 64.39 63.87 63.09 63.44 64.93 66.86 67.31 66.91 66.63 66.08 65.24 64.12 62.86 61.52 60.84
68.68 68.51 68.51 68.77 68.24 68.00 67.64 67.35 67.13 66.53 66.71 66.48 66.51 66.57 66.39 66.60 66.27 66.11 65.94 64.65 62.77 63.15 62.81 63.85 64.88 66.14 66.55 66.40 66.06 65.07 64.22 62.74 61.79
68.83 68.81 68.76 68.82 68.17 67.87 67.80 66.96 67.56 66.91 66.57 65.51 64.77 65.70 66.35 66.45 66.06 65.78 65.65 65.67 63.69 62.53 62.45 62.80 62.95 62.93 65.24 65.97 66.00 65.57 64.89 64.01 62.74
68.46 68.49 68.59 68.74 67.95 67.68 67.67 67.35 66.38 65.94 66.60 64.24 64.11 65.09 65.44 64.81 64.90 65.15 65.12 63.72 62.72 62.54 62.06 61.73 61.88 62.30 63.83 64.74 65.23 65.45 65.13 64.52 63.98
68.54 68.42 68.29 68.34 67.67 67.48 67.22 66.84 65.27 64.99 65.81 62.92 62.00 59.18 60.94 62.56 62.79 63.33 62.19 61.83 61.51 60.22 60.33 60.42 60.34 60.90 61.56 62.01 63.48 64.53 65.11 64.72 64.32
67.17 67.40 67.39 67.38 67.07 65.64 66.38 66.07 64.61 62.69 64.48 63.86 61.96 58.01 55.87 58.94 61.09 60.84 59.79 59.35 59.36 59.11 58.27 58.91 59.27 59.39 59.88 60.08 60.14 60.91 62.46 63.84 64.23
58.57 62.33 64.57 65.12 64.89 63.45 63.86 64.17 63.60 62.98 60.88 60.36 60.74 61.37 58.96 55.63 54.47 59.38 59.64 57.65 56.84 57.48 56.35 55.63 57.29 56.84 56.18 55.77 55.96 57.24 58.27 60.43 62.79
58.52 58.86 59.41 59.93 61.02 61.40 61.17 61.31 61.00 61.99 61.48 60.91 58.51 58.57 58.89 57.79 55.31 53.15 56.57 58.59 55.28 55.91 56.58 57.81 56.67 57.25 56.64 56.54 54.91 54.32 55.36 57.49 59.30

GFSFLT1_sfc_wetblb_063.txt.gz
Wetbulb
69.69 69.00 69.05 68.84 68.86 69.15 69.34 69.43 69.40 69.00 69.23 69.34 68.53 67.32 67.47 68.09 68.64 69.00 69.67 68.20 69.01 68.75 68.88 68.62 68.49 68.44 68.68 68.97 69.61 70.48 69.99 69.49 69.55
70.01 68.92 69.24 68.99 68.91 69.14 69.21 69.09 69.05 68.49 67.93 69.17 68.05 66.54 66.87 65.89 66.58 67.23 67.85 67.28 67.89 67.78 67.69 67.51 66.95 66.74 66.74 67.17 67.85 68.29 69.49 69.95 69.76
70.40 69.32 68.83 69.16 68.85 68.46 68.59 68.51 68.45 67.98 67.38 68.69 67.44 66.13 66.43 65.30 64.89 65.38 66.54 68.32 67.36 67.04 66.93 66.49 65.50 65.09 64.99 65.17 65.86 66.55 66.98 67.50 68.11
70.53 69.75 68.80 68.65 68.94 68.45 67.93 67.55 67.58 67.32 66.35 68.22 66.76 65.41 65.63 65.34 64.09 62.94 66.10 68.21 66.88 66.40 66.19 66.13 65.09 64.33 64.45 64.67 64.73 64.73 65.11 65.29 66.13
70.54 69.80 69.38 68.51 68.65 68.10 67.39 66.79 66.68 66.31 65.41 64.32 64.05 63.17 64.47 64.25 63.64 63.47 62.33 64.88 67.58 65.98 65.73 65.69 64.71 63.48 63.66 63.85 64.31 64.29 64.30 64.22 64.16
68.37 67.83 68.83 68.76 68.35 67.66 66.71 66.07 65.76 65.01 64.98 63.30 61.34 61.89 63.94 62.88 62.56 62.78 63.47 63.34 65.53 67.46 65.47 65.01 64.00 62.68 62.69 62.60 63.09 63.58 63.73 63.69 63.63
68.00 67.46 67.52 68.47 68.70 68.00 66.69 65.91 65.33 63.76 64.65 64.16 62.59 63.61 63.67 62.55 62.20 62.88 64.22 64.48 65.73 67.41 66.40 64.82 63.36 62.02 61.92 61.75 62.15 62.72 62.84 62.81 62.77
65.46 67.10 66.71 67.43 66.85 67.59 66.74 66.23 65.70 64.69 63.25 62.54 62.12 61.93 61.72 61.61 62.13 63.22 63.57 63.80 66.50 68.62 66.84 65.50 63.67 62.04 61.59 61.34 61.14 61.41 61.03 61.04 61.07
66.02 65.44 66.33 66.99 67.43 66.74 67.65 67.17 66.90 66.44 65.63 63.74 62.12 61.94 62.04 62.00 62.47 62.87 62.56 62.68 65.29 68.68 67.92 66.40 64.70 63.12 62.02 61.68 60.79 60.60 59.90 60.04 60.26
67.71 66.09 64.90 65.19 65.71 65.90 66.19 66.38 66.19 66.16 65.95 65.57 64.81 63.85 63.80 63.50 63.51 62.98 61.94 62.13 63.30 67.14 69.34 68.08 66.68 64.91 63.48 62.25 61.64 60.77 60.00 59.62 59.79
67.96 67.38 66.36 65.10 65.20 65.80 65.99 66.84 67.28 67.13 67.14 66.67 66.35 65.80 66.00 65.81 65.05 64.04 63.59 61.85 63.07 64.85 68.15 68.91 67.74 67.00 65.86 64.75 63.34 62.22 61.28 60.26 59.97
67.91 67.45 67.31 67.30 66.88 66.16 66.52 66.88 67.24 66.98 67.08 66.75 67.13 67.16 66.94 66.73 66.24 65.35 64.69 64.13 61.59 63.46 64.82 67.38 67.68 67.34 66.80 66.23 65.46 63.98 62.91 61.98 60.45
68.60 67.70 67.66 68.37 68.21 67.84 67.29 66.96 66.54 66.51 66.48 66.28 66.60 66.87 67.05 66.95 66.87 66.99 66.58 65.62 64.58 63.11 64.16 65.48 66.82 67.03 67.03 66.90 66.33 65.63 64.06 63.02 62.13
68.71 68.63 68.61 68.88 68.49 68.13 67.72 67.31 67.10 66.24 66.22 65.39 66.72 67.01 66.93 66.92 66.87 66.61 66.85 66.87 65.89 64.22 63.82 63.47 64.63 66.25 66.96 66.73 66.77 66.36 65.67 64.13 62.90
68.76 68.69 68.65 68.85 68.00 67.16 66.92 66.34 66.76 66.20 65.80 65.06 65.29 66.36 66.58 66.81 66.71 66.19 65.66 65.69 66.18 65.50 63.88 63.78 62.48 62.69 64.80 65.91 66.40 66.21 65.90 65.22 64.19
68.89 68.63 68.25 67.78 66.98 66.88 66.89 66.47 65.15 64.93 66.96 64.77 64.47 64.87 65.66 65.64 65.29 65.14 64.26 64.55 64.70 63.64 63.26 62.95 62.65 62.69 63.78 65.01 65.31 65.90 65.96 65.38 64.89
68.51 68.22 67.58 67.46 66.98 66.66 66.58 65.68 64.78 64.97 66.01 62.81 62.74 59.30 61.05 62.41 63.74 63.53 62.93 62.82 63.01 62.25 61.61 61.50 61.33 61.61 61.39 61.97 63.79 64.31 65.31 65.40 65.03
68.21 67.72 67.15 67.23 67.16 66.21 66.13 65.53 64.45 62.75 63.32 63.54 61.10 57.93 56.15 58.88 61.03 61.25 61.60 61.00 60.72 60.99 59.99 59.76 60.22 59.80 59.58 60.10 59.32 59.43 60.05 62.16 64.37
61.43 63.16 65.13 65.81 65.39 64.22 64.10 64.35 63.95 63.40 61.56 61.89 61.66 62.00 59.46 56.09 54.64 59.64 60.43 60.47 58.19 59.43 59.08 57.61 57.62 56.64 56.90 56.41 55.63 56.22 56.23 58.08 60.03
58.71 58.66 59.32 59.72 60.33 61.29 61.48 61.62 61.24 61.17 60.64 60.93 60.09 59.86 59.97 59.46 56.22 53.84 55.56 59.74 58.90 58.07 58.01 57.76 57.63 57.15 56.87 55.99 53.56 53.17 54.34 56.13 57.76

GFSFLT1_sfc_wetblb_066.txt.gz
Wetbulb
69.44 69.18 69.03 69.20 69.63 69.65 69.70 69.58 69.05 69.53 69.32 68.41 67.83 67.91 68.70 68.06 64.94 66.45 67.49 65.42 68.31 68.66 68.41 67.59 67.22 67.36 68.03 68.91 69.23 70.23 70.37 70.34 70.33
69.16 69.40 69.12 69.25 69.40 69.49 69.45 69.32 68.72 68.21 69.33 68.32 67.51 67.38 67.49 62.78 62.25 63.38 64.07 64.60 67.57 67.52 67.12 66.05 65.49 65.69 65.85 66.37 67.73 67.99 68.47 69.00 69.48
69.34 69.29 69.30 68.98 69.00 69.06 68.90 68.73 68.43 67.66 68.80 68.75 67.26 66.97 66.21 63.00 60.11 62.97 64.67 67.94 67.56 67.56 67.27 66.11 65.00 64.86 65.21 65.51 65.50 65.98 66.48 67.19 67.65
70.19 69.00 69.07 69.19 68.75 68.32 68.08 67.91 67.85 67.00 67.60 67.97 66.56 66.31 65.76 60.83 60.14 64.71 64.91 68.72 67.21 66.92 66.90 66.31 64.86 64.52 64.52 64.85 65.02 65.03 65.22 65.31 65.89
70.27 69.52 69.24 68.96 68.69 67.98 67.48 67.14 66.94 66.50 65.34 64.58 65.02 64.08 63.45 58.87 59.36 59.13 61.15 66.53 67.55 66.34 66.22 65.98 64.63 64.13 63.69 63.83 64.35 64.52 64.43 64.37 64.56
67.19 67.81 68.33 68.90 68.65 67.63 66.92 66.34 65.80 66.08 65.37 64.67 63.70 62.66 58.26 56.96 57.63 58.03 64.37 63.77 65.44 67.49 65.84 65.16 64.10 63.37 62.96 62.99 63.65 63.90 63.86 63.75 63.92
67.42 66.19 67.51 68.73 68.67 67.96 67.08 66.36 66.18 64.43 60.69 60.23 62.55 58.61 58.62 57.01 56.71 59.32 65.02 64.27 65.33 67.42 67.34 65.24 63.64 62.72 62.44 62.20 62.60 62.74 62.54 62.48 62.55
64.12 64.40 64.60 64.95 66.18 65.34 65.74 64.36 62.93 60.57 58.61 58.09 57.20 57.10 56.31 55.72 56.02 61.27 64.54 63.69 65.33 67.48 68.04 65.85 63.96 62.56 62.14 61.84 61.73 61.46 60.93 61.09 61.14
60.29 62.61 62.73 63.10 64.23 63.51 63.35 63.20 62.74 62.09 61.32 59.14 57.07 56.74 56.26 56.60 56.80 58.98 62.97 64.27 64.09 67.74 68.06 67.29 65.34 63.75 62.50 62.10 61.26 61.05 60.13 60.22 60.43
63.42 61.06 60.67 61.24 61.82 61.23 61.59 62.03 61.48 61.48 61.52 61.17 60.54 59.47 58.88 58.33 58.17 57.13 61.34 62.91 63.68 65.12 68.98 68.84 67.52 65.69 64.07 62.63 61.91 61.00 60.34 59.67 59.82
64.33 62.83 61.29 59.83 60.20 60.82 60.94 61.08 62.54 62.89 62.74 62.59 62.30 61.08 61.18 61.37 61.11 59.72 58.34 62.15 62.78 64.16 65.43 68.96 69.03 67.92 66.50 65.43 64.06 63.14 62.13 61.03 59.89
63.94 63.34 62.72 62.61 61.53 61.26 61.23 62.07 62.71 62.67 63.54 62.56 63.20 63.16 62.38 62.24 62.15 61.12 60.40 59.90 61.75 63.39 64.24 65.50 67.33 67.60 67.81 66.94 66.26 64.84 63.82 62.90 61.62
64.38 63.57 63.32 64.31 63.73 63.26 62.66 62.40 62.18 62.16 62.18 61.90 62.31 62.37 63.01 62.83 62.73 63.05 62.36 61.30 60.98 61.53 64.16 65.40 65.99 66.83 67.15 67.44 67.15 66.67 65.18 63.91 62.74
65.11 64.94 64.72 64.97 64.49 63.97 63.95 63.38 62.93 62.05 62.25 63.40 63.43 63.79 63.80 63.03 64.12 62.93 63.04 63.27 63.57 61.90 62.49 62.80 63.64 65.71 66.32 66.58 67.00 66.81 66.25 65.23 64.07
65.26 65.13 65.19 65.13 65.66 64.95 64.90 64.28 64.41 63.89 63.54 64.01 63.40 63.77 63.07 62.98 62.94 62.92 63.18 61.54 61.76 62.63 60.62 59.94 60.16 62.65 64.88 65.24 65.82 66.04 66.33 65.66 65.32
65.49 65.34 66.16 65.69 65.11 64.76 64.81 63.96 63.38 62.85 63.61 62.91 60.83 61.44 62.34 62.31 62.37 62.18 60.80 59.98 60.15 59.43 59.14 58.72 58.33 58.91 63.22 64.50 64.81 65.03 65.56 65.87 65.07
66.02 65.43 65.41 65.78 65.43 65.23 64.83 64.52 63.22 63.06 63.71 61.16 60.27 57.34 57.68 59.36 59.83 60.15 58.98 57.69 57.46 57.91 57.61 56.81 56.29 55.88 56.06 58.41 63.16 63.83 64.38 64.77 65.12
66.79 66.45 65.99 65.87 65.90 65.25 65.10 64.22 63.26 62.00 62.40 62.78 60.10 56.22 53.77 54.94 56.71 56.92 57.24 56.57 55.67 54.60 54.54 54.63 54.76 55.71 55.35 55.86 55.95 57.25 57.65 59.22 61.22
58.18 58.97 62.24 65.02 64.70 63.76 62.13 62.69 62.16 62.22 60.75 61.25 61.59 60.50 59.51 55.72 53.26 55.14 56.10 55.74 54.39 54.19 52.93 52.83 53.87 53.98 53.92 53.65 54.35 54.65 55.55 57.57 58.92
56.36 56.03 55.96 55.97 56.36 56.89 57.72 57.70 58.03 58.30 57.24 57.55 57.72 56.65 58.14 58.13 56.00 52.87 52.52 55.73 55.69 54.49 54.24 53.45 52.02 51.77 49.68 48.43 51.22 53.41 55.21 57.07 58.15

GFSFLT1_sfc_wetblb_069.txt.gz
Wetbulb
69.37 69.30 69.70 70.18 69.98 69.73 69.58 69.35 69.83 69.17 68.57 68.18 68.42 68.53 68.49 67.09 64.14 63.90 65.69 64.02 68.13 67.49 66.57 66.13 66.39 66.49 67.47 68.61 68.91 69.26 69.94 70.01 70.14
69.46 69.25 69.32 69.49 69.67 69.60 69.50 68.82 68.88 69.45 68.55 67.95 67.88 67.68 67.02 61.39 61.99 63.01 63.23 63.77 68.04 67.91 66.57 65.54 65.32 65.41 65.76 66.64 67.50 67.47 67.76 68.63 68.90
69.57 69.27 69.32 69.46 69.46 69.22 69.11 68.77 68.11 68.98 68.92 67.64 67.11 67.20 65.94 60.24 62.28 63.47 63.68 68.00 67.85 68.20 67.08 65.52 64.95 65.01 65.44 65.51 65.43 66.03 66.60 66.87 66.81
69.28 69.52 69.19 68.89 68.64 68.43 68.36 68.26 67.66 67.35 68.13 66.93 66.40 65.88 64.79 58.55 62.13 64.90 64.64 68.48 67.67 67.55 67.18 65.93 65.03 64.61 64.70 64.95 65.11 64.94 64.82 65.25 65.85
69.78 69.23 69.58 68.90 68.33 67.94 67.59 67.42 67.13 66.40 65.19 64.91 65.33 63.61 62.62 57.38 58.15 59.60 63.27 68.33 67.53 66.90 66.59 65.96 64.45 64.11 63.82 64.19 64.48 64.60 64.56 64.65 64.69
67.53 67.17 68.11 69.03 68.37 67.49 66.90 66.69 66.11 65.92 65.27 64.84 63.94 63.15 57.65 55.87 56.57 56.84 64.83 65.59 66.60 67.52 66.51 65.69 64.04 63.48 62.78 63.23 63.68 63.65 63.69 63.73 63.89
66.99 65.90 67.07 68.56 68.35 67.65 67.05 66.50 66.25 64.33 59.74 59.46 62.35 57.65 57.40 55.02 55.71 57.58 65.20 64.84 65.56 67.28 67.50 65.56 63.92 63.19 62.61 62.22 62.63 62.05 61.92 61.87 62.24
64.79 64.33 65.22 64.87 65.43 64.67 65.46 63.99 62.57 59.50 58.26 58.65 57.53 57.20 54.53 54.20 54.31 60.17 65.01 64.80 64.77 66.80 68.76 66.46 64.46 63.31 62.82 62.02 61.84 60.87 60.62 60.97 61.25
61.94 62.53 62.53 62.82 64.19 62.92 62.57 61.54 61.37 60.60 59.04 57.24 56.15 55.16 54.71 54.83 55.22 56.88 63.73 65.07 63.98 66.24 68.33 67.55 65.92 64.19 63.22 62.55 61.70 60.80 60.01 60.34 60.49
60.47 60.30 61.33 61.49 62.71 61.71 61.76 61.40 60.97 60.59 60.30 60.01 58.99 58.08 57.25 56.61 56.47 55.46 61.47 63.41 64.98 64.77 67.62 68.67 67.96 66.34 64.67 63.68 62.69 61.80 60.72 60.03 60.04
62.89 60.83 58.56 58.18 59.39 59.49 59.40 59.74 60.06 60.76 60.94 60.82 60.81 59.80 58.99 59.22 59.62 58.27 57.28 62.86 63.50 64.89 64.64 66.63 68.64 68.27 67.02 65.48 64.39 63.53 62.85 61.79 60.82
63.49 62.21 60.68 60.35 59.10 59.34 59.15 59.82 60.91 61.12 61.96 61.36 61.89 62.00 61.42 60.63 60.73 60.32 58.87 59.08 61.72 63.55 64.82 65.16 66.34 67.59 67.98 67.61 67.23 65.70 64.33 63.38 62.32
63.02 62.38 61.93 62.22 61.46 60.28 60.57 60.81 60.60 60.69 60.87 60.81 61.44 61.60 61.99 63.09 62.71 61.70 61.10 59.76 59.71 61.37 64.59 65.87 66.07 66.42 66.98 67.47 67.18 66.67 66.06 64.60 63.61
63.87 63.43 63.04 63.42 62.94 62.32 62.29 62.07 61.55 60.95 61.38 62.74 63.08 63.29 63.19 63.55 63.97 62.44 62.27 61.98 62.63 61.09 62.09 63.16 63.61 64.99 65.51 66.04 66.56 66.84 66.27 65.65 64.99
64.28 64.34 64.11 63.81 64.57 64.60 64.26 63.82 63.81 63.33 63.40 63.58 63.47 63.01 63.05 62.75 61.96 61.98 62.73 61.49 60.70 61.38 59.76 59.48 59.71 62.25 64.51 64.87 65.45 65.75 66.00 66.04 65.11
64.36 64.11 64.05 65.08 64.44 64.09 64.12 63.73 62.94 62.58 62.82 62.10 59.91 60.46 61.41 61.55 61.79 62.04 61.24 60.11 59.53 58.58 58.29 57.78 57.78 58.10 62.30 63.53 64.19 64.74 64.97 65.23 65.11
65.16 64.45 64.47 65.02 64.72 64.48 64.36 63.88 63.44 63.16 63.19 60.95 60.00 56.57 56.96 59.00 59.07 58.48 58.99 57.66 56.56 56.83 55.82 54.85 54.74 54.28 55.67 58.21 59.61 61.18 62.15 62.69 62.95
66.25 66.11 65.87 65.71 65.61 64.80 64.92 64.20 63.41 61.74 61.30 61.72 58.95 54.88 53.00 54.72 56.88 56.72 56.53 56.42 55.74 54.12 53.88 53.54 53.76 53.47 54.59 54.80 54.16 56.03 57.29 59.24 60.36
58.03 58.68 61.33 63.87 63.88 62.03 61.12 61.55 60.60 59.27 59.06 58.55 60.00 59.46 57.57 55.19 52.69 54.51 55.18 54.76 53.22 52.43 52.03 52.63 52.20 51.96 50.43 51.96 54.24 55.31 56.86 58.50 59.58
56.21 56.03 55.81 55.66 56.04 56.05 56.70 56.66 56.61 57.13 56.58 55.25 54.34 54.45 55.10 55.35 53.15 50.35 52.16 53.90 54.13 53.15 52.95 51.14 50.11 49.31 48.41 49.44 52.88 54.34 55.78 57.21 58.15